Darstellungsparameter: Aktuell verwendete Einstellungen:
Skalierung der Graphiken ... ?
xyx+y,   Skalierungsfaktor:      Skalierung: Modus: x, Faktor: 1
Darstellungszeitraum ... ?
Vom - - bis: - -   Zeitraum: 24.05.2014 - 30.05.2014
Min/Max/Avg-Anzeige ... ?
Zeige MMA aktuell
Zeige MMA Monat
Zeige MMA alles
Zeige --A aktuell
Zeige --A Monat
Zeige --A alles
Keine MMA-Anzeige
MMA:
Keine MMA-Graphiken
MMA-Basis: 24.05.2014 - 30.05.2014
Quicknavigation für Darstellung... ?
Tage:      1T, 2T, 3T, 5T -1T -2T -3T -5T +1T +2T +3T +5T
Wochen: 1W, 2W, 3W -1W -2W -3W +1W +2W +3W
Monate: 1M, 3M, 6M -1M -3M -6M +1M +3M +6M
Jahre:    1J, 3J, 5J, 10J -1J -3J -5J -10J +1J +3J +5J +10J
Nutze für die Darstellung ... ?
Originaldaten oder Mittelwerte auf ...
Stundenbasis Tagesbasis Wochenbasis
Monatsbasis Jahresbasis      Datenbasis: Original-Daten
Darstellen als:
Statistik (Auto) Statistik J:M      Darstellung:
Zur Graphik,    zurück zur Übersicht aller Sensoren.
 
Tabellarische Datenbersicht: ?
 
Sensor: Nr:Datum:Temp:Feuchte:
Aussen-T/F 1 24-05-2014 00:02:17 13 C 82 %
2 24-05-2014 00:14:17 12.9 C 84 %
3 24-05-2014 00:26:17 12.8 C 84 %
4 24-05-2014 00:38:17 12.6 C 84 %
5 24-05-2014 00:50:17 12.4 C 84 %
6 24-05-2014 01:02:17 12.3 C 85 %
7 24-05-2014 01:14:17 12.2 C 85 %
8 24-05-2014 01:26:17 12.3 C 85 %
9 24-05-2014 01:38:17 12 C 85 %
10 24-05-2014 01:50:17 11.7 C 86 %
11 24-05-2014 02:02:17 11.6 C 86 %
12 24-05-2014 02:14:17 11.6 C 86 %
13 24-05-2014 02:26:17 11.7 C 87 %
14 24-05-2014 02:38:17 11.8 C 87 %
15 24-05-2014 02:50:17 12.1 C 87 %
16 24-05-2014 03:02:17 12.1 C 87 %
17 24-05-2014 03:14:17 12.1 C 87 %
18 24-05-2014 03:26:17 12.1 C 87 %
19 24-05-2014 03:38:17 12.1 C 87 %
20 24-05-2014 03:50:17 12.1 C 87 %
21 24-05-2014 04:02:17 12.1 C 87 %
22 24-05-2014 04:14:17 12.1 C 87 %
23 24-05-2014 04:26:17 12.1 C 87 %
24 24-05-2014 04:38:17 12.1 C 87 %
25 24-05-2014 04:50:17 12.1 C 87 %
Sensor: Nr:Datum:Temp:Feuchte:
Aussen-T/F 26 24-05-2014 05:02:17 12.1 C 87 %
27 24-05-2014 05:14:17 12.1 C 87 %
28 24-05-2014 05:26:17 12.1 C 87 %
29 24-05-2014 05:38:17 12.1 C 87 %
30 24-05-2014 05:50:17 12.4 C 75 %
31 24-05-2014 06:02:17 12.2 C 78 %
32 24-05-2014 06:14:17 12.1 C 80 %
33 24-05-2014 06:26:17 12.2 C 81 %
34 24-05-2014 06:38:17 12.1 C 83 %
35 24-05-2014 06:50:17 12.2 C 84 %
36 24-05-2014 07:02:17 12.1 C 84 %
37 24-05-2014 07:14:17 12.3 C 85 %
38 24-05-2014 07:26:17 12.1 C 85 %
39 24-05-2014 07:38:17 12 C 86 %
40 24-05-2014 07:50:17 12 C 86 %
41 24-05-2014 08:02:17 12.1 C 87 %
42 24-05-2014 08:14:17 12.4 C 87 %
43 24-05-2014 08:26:17 12.6 C 88 %
44 24-05-2014 08:38:17 12.5 C 88 %
45 24-05-2014 08:50:17 13 C 87 %
46 24-05-2014 09:02:17 13.4 C 88 %
47 24-05-2014 09:14:17 13.6 C 88 %
48 24-05-2014 09:26:17 13.6 C 87 %
49 24-05-2014 09:38:17 13.7 C 87 %
50 24-05-2014 09:50:17 14.4 C 87 %
Sensor: Nr:Datum:Temp:Feuchte:
Aussen-T/F 51 24-05-2014 10:02:17 14.8 C 87 %
52 24-05-2014 10:14:17 14.9 C 86 %
53 24-05-2014 10:26:17 14.8 C 85 %
54 24-05-2014 10:38:17 14.3 C 81 %
55 24-05-2014 10:50:17 13.6 C 79 %
56 24-05-2014 11:02:17 14.1 C 77 %
57 24-05-2014 11:14:17 14.6 C 73 %
58 24-05-2014 11:26:17 14.7 C 69 %
59 24-05-2014 11:38:17 15.5 C 66 %
60 24-05-2014 11:50:17 15.8 C 60 %
61 24-05-2014 12:02:17 15.4 C 57 %
62 24-05-2014 12:14:17 15.4 C 61 %
63 24-05-2014 12:26:16 15.7 C 60 %
64 24-05-2014 12:38:17 16.4 C 59 %
65 24-05-2014 12:50:17 16.4 C 57 %
66 24-05-2014 13:02:17 17 C 56 %
67 24-05-2014 13:14:17 17.7 C 55 %
68 24-05-2014 13:26:17 18.1 C 50 %
69 24-05-2014 13:38:17 18.3 C 50 %
70 24-05-2014 13:50:17 18.8 C 49 %
71 24-05-2014 14:02:17 18.5 C 47 %
72 24-05-2014 14:14:17 18.6 C 49 %
73 24-05-2014 14:26:17 19.1 C 44 %
74 24-05-2014 14:38:17 19.1 C 43 %
75 24-05-2014 14:50:17 19.4 C 41 %
Sensor: Nr:Datum:Temp:Feuchte:
Aussen-T/F 76 24-05-2014 15:02:17 19.7 C 42 %
77 24-05-2014 15:14:17 19.7 C 45 %
78 24-05-2014 15:26:17 21.2 C 38 %
79 24-05-2014 15:38:17 22.1 C 36 %
80 24-05-2014 15:50:17 22.1 C 35 %
81 24-05-2014 16:02:17 19.9 C 40 %
82 24-05-2014 16:14:17 20.1 C 38 %
83 24-05-2014 16:26:17 20.9 C 36 %
84 24-05-2014 16:38:17 22.7 C 30 %
85 24-05-2014 16:50:17 21.2 C 33 %
86 24-05-2014 17:02:17 27 C 25 %
87 24-05-2014 17:14:17 24.1 C 27 %
88 24-05-2014 17:26:17 24.9 C 25 %
89 24-05-2014 17:38:17 24.1 C 24 %
90 24-05-2014 17:50:17 27.3 C 20 %
91 24-05-2014 18:02:17 25.6 C 23 %
92 24-05-2014 18:14:17 27 C 20 %
93 24-05-2014 18:26:17 22.6 C 28 %
94 24-05-2014 18:38:17 22.6 C 28 %
95 24-05-2014 18:50:17 19.1 C 41 %
96 24-05-2014 19:02:17 18.7 C 47 %
97 24-05-2014 19:14:17 18.4 C 51 %
98 24-05-2014 19:26:17 18.4 C 51 %
99 24-05-2014 19:38:17 18.4 C 51 %
100 24-05-2014 19:50:17 17.5 C 56 %
Sensor: Nr:Datum:Temp:Feuchte:
Aussen-T/F 101 24-05-2014 20:02:17 17.3 C 53 %
102 24-05-2014 20:14:17 17 C 56 %
103 24-05-2014 20:26:17 16.9 C 57 %
104 24-05-2014 20:38:17 16.1 C 59 %
105 24-05-2014 20:50:17 16 C 60 %
106 24-05-2014 21:02:17 15.2 C 62 %
107 24-05-2014 21:14:17 14.5 C 65 %
108 24-05-2014 21:26:17 14.1 C 65 %
109 24-05-2014 21:38:17 13.4 C 67 %
110 24-05-2014 21:51:17 12.9 C 69 %
111 24-05-2014 22:02:18 12.6 C 71 %
112 24-05-2014 22:14:18 12.1 C 71 %
113 24-05-2014 22:27:17 12 C 72 %
114 24-05-2014 22:38:17 11.8 C 73 %
115 24-05-2014 22:50:17 11.8 C 73 %
116 24-05-2014 23:02:17 11.8 C 73 %
117 24-05-2014 23:14:17 11.6 C 75 %
118 24-05-2014 23:27:17 11.1 C 74 %
119 24-05-2014 23:39:17 10.8 C 75 %
120 24-05-2014 23:51:17 10.6 C 76 %
121 25-05-2014 00:03:17 10.6 C 77 %
122 25-05-2014 00:14:17 10.4 C 77 %
123 25-05-2014 00:26:17 10.2 C 77 %
124 25-05-2014 00:38:17 9.9 C 78 %
125 25-05-2014 00:51:17 9.8 C 79 %
Sensor: Nr:Datum:Temp:Feuchte:
Aussen-T/F 126 25-05-2014 01:14:17 9.6 C 80 %
127 25-05-2014 01:14:17 9.6 C 79 %
128 25-05-2014 01:26:17 9.3 C 80 %
129 25-05-2014 01:39:17 9.3 C 81 %
130 25-05-2014 01:51:17 9.2 C 81 %
131 25-05-2014 02:02:17 9.1 C 82 %
132 25-05-2014 02:14:17 9 C 82 %
133 25-05-2014 02:27:17 9.1 C 83 %
134 25-05-2014 02:39:17 8.9 C 84 %
135 25-05-2014 02:50:17 8.8 C 84 %
136 25-05-2014 03:03:17 8.7 C 84 %
137 25-05-2014 03:14:17 8.7 C 84 %
138 25-05-2014 03:26:17 8.4 C 84 %
139 25-05-2014 03:38:17 8.2 C 84 %
140 25-05-2014 03:51:17 8.1 C 85 %
141 25-05-2014 04:03:17 8.2 C 85 %
142 25-05-2014 04:15:17 8 C 85 %
143 25-05-2014 04:27:17 7.9 C 87 %
144 25-05-2014 04:39:17 7.7 C 87 %
145 25-05-2014 04:51:16 7.8 C 87 %
146 25-05-2014 05:03:16 7.7 C 88 %
147 25-05-2014 05:15:17 7.5 C 88 %
148 25-05-2014 05:27:17 7.4 C 88 %
149 25-05-2014 05:39:17 7.4 C 88 %
150 25-05-2014 05:51:17 7.4 C 88 %
Sensor: Nr:Datum:Temp:Feuchte:
Aussen-T/F 151 25-05-2014 06:03:17 7.5 C 88 %
152 25-05-2014 06:15:17 7.5 C 88 %
153 25-05-2014 06:27:17 7.5 C 88 %
154 25-05-2014 06:39:16 7.5 C 89 %
155 25-05-2014 06:51:17 7.6 C 89 %
156 25-05-2014 07:03:16 8.1 C 88 %
157 25-05-2014 07:15:16 8.2 C 88 %
158 25-05-2014 07:27:16 8.3 C 88 %
159 25-05-2014 07:39:17 8.4 C 88 %
160 25-05-2014 07:51:17 8.4 C 88 %
161 25-05-2014 08:03:17 8.5 C 88 %
162 25-05-2014 08:15:16 8.7 C 88 %
163 25-05-2014 08:27:16 9.1 C 87 %
164 25-05-2014 08:39:17 9.7 C 88 %
165 25-05-2014 08:51:17 12.3 C 88 %
166 25-05-2014 09:03:17 11.1 C 83 %
167 25-05-2014 09:15:16 13.1 C 82 %
168 25-05-2014 09:27:16 13.1 C 82 %
169 25-05-2014 09:39:17 16.6 C 64 %
170 25-05-2014 09:51:16 16.6 C 64 %
171 25-05-2014 10:03:16 16.6 C 64 %
172 25-05-2014 10:15:16 16.6 C 64 %
173 25-05-2014 10:27:16 14.3 C 70 %
174 25-05-2014 10:39:17 14.7 C 70 %
175 25-05-2014 10:51:17 14.7 C 70 %
Sensor: Nr:Datum:Temp:Feuchte:
Aussen-T/F 176 25-05-2014 11:03:16 15.8 C 69 %
177 25-05-2014 11:15:17 16.3 C 67 %
178 25-05-2014 11:27:17 16.3 C 67 %
179 25-05-2014 11:39:16 17.2 C 64 %
180 25-05-2014 11:51:16 17.2 C 64 %
181 25-05-2014 12:03:17 19.4 C 40 %
182 25-05-2014 12:15:16 19.6 C 38 %
183 25-05-2014 12:27:16 19.8 C 39 %
184 25-05-2014 12:39:17 20 C 38 %
185 25-05-2014 12:51:16 20.2 C 35 %
186 25-05-2014 13:03:17 20.5 C 34 %
187 25-05-2014 13:15:16 20.8 C 35 %
188 25-05-2014 13:27:16 21.1 C 31 %
189 25-05-2014 13:39:16 21.4 C 32 %
190 25-05-2014 13:51:16 21.8 C 34 %
191 25-05-2014 14:03:17 22 C 31 %
192 25-05-2014 14:15:16 22.9 C 35 %
193 25-05-2014 14:27:16 23 C 31 %
194 25-05-2014 14:39:16 23.6 C 31 %
195 25-05-2014 14:51:16 23.9 C 30 %
196 25-05-2014 15:03:16 23.9 C 30 %
197 25-05-2014 15:15:16 23.7 C 29 %
198 25-05-2014 15:27:16 24.1 C 29 %
199 25-05-2014 15:39:16 24.8 C 27 %
200 25-05-2014 15:51:16 25.1 C 27 %
Sensor: Nr:Datum:Temp:Feuchte:
Aussen-T/F 201 25-05-2014 16:03:16 24.6 C 29 %
202 25-05-2014 16:15:16 28.1 C 25 %
203 25-05-2014 16:27:16 28.5 C 22 %
204 25-05-2014 16:39:17 29.5 C 20 %
205 25-05-2014 16:51:16 34.3 C 20 %
206 25-05-2014 17:03:16 32.2 C 20 %
207 25-05-2014 17:15:16 30 C 22 %
208 25-05-2014 17:27:16 29.3 C 25 %
209 25-05-2014 17:39:17 31.1 C 20 %
210 25-05-2014 17:51:16 32.7 C 20 %
211 25-05-2014 18:03:16 29.3 C 22 %
212 25-05-2014 18:15:16 29.8 C 21 %
213 25-05-2014 18:27:16 30 C 22 %
214 25-05-2014 18:39:16 29.8 C 20 %
215 25-05-2014 18:51:16 29.7 C 20 %
216 25-05-2014 19:03:16 26.8 C 26 %
217 25-05-2014 19:15:16 23.4 C 40 %
218 25-05-2014 19:27:16 21.7 C 46 %
219 25-05-2014 19:39:16 21.2 C 48 %
220 25-05-2014 19:51:16 20.2 C 51 %
221 25-05-2014 20:03:16 19.6 C 53 %
222 25-05-2014 20:15:15 19.2 C 54 %
223 25-05-2014 20:27:15 18.6 C 56 %
224 25-05-2014 20:39:16 18.1 C 56 %
225 25-05-2014 20:51:16 17.9 C 56 %
Sensor: Nr:Datum:Temp:Feuchte:
Aussen-T/F 226 25-05-2014 21:03:16 17.8 C 56 %
227 25-05-2014 21:15:16 17.3 C 57 %
228 25-05-2014 21:27:16 17.2 C 58 %
229 25-05-2014 21:39:16 17.1 C 56 %
230 25-05-2014 21:51:16 16.6 C 59 %
231 25-05-2014 22:03:16 16.4 C 58 %
232 25-05-2014 22:15:16 16.2 C 59 %
233 25-05-2014 22:27:16 16.2 C 60 %
234 25-05-2014 22:39:16 16.1 C 61 %
235 25-05-2014 22:51:16 16.2 C 62 %
236 25-05-2014 23:03:16 15.9 C 62 %
237 25-05-2014 23:15:16 15.8 C 63 %
238 25-05-2014 23:27:16 15.2 C 63 %
239 25-05-2014 23:39:16 15 C 64 %
240 25-05-2014 23:51:16 14.7 C 66 %
241 26-05-2014 00:03:16 14.6 C 66 %
242 26-05-2014 00:15:16 14.3 C 68 %
243 26-05-2014 00:27:16 14.1 C 68 %
244 26-05-2014 00:39:16 14 C 69 %
245 26-05-2014 00:51:16 14.1 C 69 %
246 26-05-2014 01:03:16 14.1 C 69 %
247 26-05-2014 01:15:16 13.8 C 70 %
248 26-05-2014 01:27:16 13.7 C 70 %
249 26-05-2014 01:39:16 13.5 C 70 %
250 26-05-2014 01:51:16 13.5 C 71 %
Sensor: Nr:Datum:Temp:Feuchte:
Aussen-T/F 251 26-05-2014 02:03:16 13.3 C 71 %
252 26-05-2014 02:15:15 13.1 C 72 %
253 26-05-2014 02:27:15 13.1 C 72 %
254 26-05-2014 02:39:15 13.1 C 73 %
255 26-05-2014 02:51:17 13.1 C 73 %
256 26-05-2014 03:03:17 13.1 C 74 %
257 26-05-2014 03:15:17 13 C 73 %
258 26-05-2014 03:27:17 12.9 C 74 %
259 26-05-2014 03:39:17 12.9 C 74 %
260 26-05-2014 03:51:17 12.9 C 74 %
261 26-05-2014 04:03:17 12.7 C 75 %
262 26-05-2014 04:15:16 12.7 C 75 %
263 26-05-2014 04:27:16 12.7 C 75 %
264 26-05-2014 04:39:17 12.7 C 75 %
265 26-05-2014 04:51:17 12.7 C 76 %
266 26-05-2014 05:03:17 12.8 C 76 %
267 26-05-2014 05:15:17 12.9 C 77 %
268 26-05-2014 05:27:17 13.2 C 75 %
269 26-05-2014 05:39:17 13.3 C 74 %
270 26-05-2014 05:51:17 13.3 C 74 %
271 26-05-2014 06:03:17 13.3 C 74 %
272 26-05-2014 06:15:16 13.3 C 74 %
273 26-05-2014 06:27:16 13.3 C 74 %
274 26-05-2014 06:39:17 13.4 C 75 %
275 26-05-2014 06:51:17 13.4 C 75 %
Sensor: Nr:Datum:Temp:Feuchte:
Aussen-T/F 276 26-05-2014 07:03:17 13.6 C 75 %
277 26-05-2014 07:15:16 13.7 C 76 %
278 26-05-2014 07:27:16 13.8 C 76 %
279 26-05-2014 07:39:17 13.9 C 76 %
280 26-05-2014 07:51:17 14.2 C 75 %
281 26-05-2014 08:03:17 14.5 C 75 %
282 26-05-2014 08:15:17 14.7 C 75 %
283 26-05-2014 08:27:17 15.1 C 74 %
284 26-05-2014 08:39:17 15.7 C 73 %
285 26-05-2014 08:51:17 15.8 C 72 %
286 26-05-2014 09:03:17 15.8 C 72 %
287 26-05-2014 09:15:17 15.8 C 68 %
288 26-05-2014 09:27:17 16 C 66 %
289 26-05-2014 09:39:17 16 C 66 %
290 26-05-2014 09:51:17 16.1 C 68 %
291 26-05-2014 10:03:17 16.3 C 66 %
292 26-05-2014 10:15:17 16.2 C 66 %
293 26-05-2014 10:27:17 16.7 C 64 %
294 26-05-2014 10:39:17 17 C 62 %
295 26-05-2014 10:51:17 18.1 C 55 %
296 26-05-2014 11:03:17 18.1 C 55 %
297 26-05-2014 11:15:17 18.7 C 54 %
298 26-05-2014 11:27:17 19 C 52 %
299 26-05-2014 11:39:17 19 C 51 %
300 26-05-2014 11:51:17 19.1 C 52 %
Sensor: Nr:Datum:Temp:Feuchte:
Aussen-T/F 301 26-05-2014 12:03:17 19 C 51 %
302 26-05-2014 12:15:17 19 C 51 %
303 26-05-2014 12:27:17 19 C 51 %
304 26-05-2014 12:39:17 18.5 C 56 %
305 26-05-2014 12:51:17 20 C 50 %
306 26-05-2014 13:03:17 20.1 C 49 %
307 26-05-2014 13:15:17 20.6 C 50 %
308 26-05-2014 13:27:17 20.6 C 50 %
309 26-05-2014 13:39:17 21.1 C 48 %
310 26-05-2014 13:51:17 21 C 48 %
311 26-05-2014 14:03:17 21.3 C 48 %
312 26-05-2014 14:15:17 21.3 C 48 %
313 26-05-2014 14:27:17 22.1 C 44 %
314 26-05-2014 14:39:17 22.1 C 43 %
315 26-05-2014 14:51:17 22 C 43 %
316 26-05-2014 15:03:17 21.8 C 44 %
317 26-05-2014 15:15:17 23 C 42 %
318 26-05-2014 15:27:17 23.1 C 41 %
319 26-05-2014 15:39:17 23.4 C 41 %
320 26-05-2014 15:51:17 23.6 C 39 %
321 26-05-2014 16:03:17 23.7 C 40 %
322 26-05-2014 16:15:17 24.2 C 37 %
323 26-05-2014 16:27:17 28.5 C 32 %
324 26-05-2014 16:39:17 25.1 C 36 %
325 26-05-2014 16:51:17 24.2 C 39 %
Sensor: Nr:Datum:Temp:Feuchte:
Aussen-T/F 326 26-05-2014 17:03:17 24.6 C 38 %
327 26-05-2014 17:15:17 23.8 C 41 %
328 26-05-2014 17:27:17 23 C 42 %
329 26-05-2014 17:39:17 22.8 C 44 %
330 26-05-2014 17:51:17 23.6 C 42 %
331 26-05-2014 18:03:17 23.1 C 43 %
332 26-05-2014 18:15:17 22.5 C 49 %
333 26-05-2014 18:27:17 22.2 C 50 %
334 26-05-2014 18:39:17 21.8 C 50 %
335 26-05-2014 18:51:17 21.7 C 50 %
336 26-05-2014 19:03:17 21.6 C 52 %
337 26-05-2014 19:15:17 21.2 C 54 %
338 26-05-2014 19:27:17 21 C 55 %
339 26-05-2014 19:39:17 20.8 C 57 %
340 26-05-2014 19:51:17 20.6 C 58 %
341 26-05-2014 20:03:17 20.5 C 58 %
342 26-05-2014 20:15:17 20.5 C 58 %
343 26-05-2014 20:27:17 20.5 C 58 %
344 26-05-2014 20:39:17 20.5 C 58 %
345 26-05-2014 20:51:17 20.5 C 58 %
346 26-05-2014 21:03:17 20.5 C 58 %
347 26-05-2014 21:15:17 20.5 C 58 %
348 26-05-2014 21:27:17 20.5 C 58 %
349 26-05-2014 21:39:17 17.8 C 68 %
350 26-05-2014 21:51:17 17.7 C 68 %
Sensor: Nr:Datum:Temp:Feuchte:
Aussen-T/F 351 26-05-2014 22:03:17 17.8 C 68 %
352 26-05-2014 22:15:17 17.8 C 68 %
353 26-05-2014 22:27:17 17.5 C 69 %
354 26-05-2014 22:39:17 17.4 C 69 %
355 26-05-2014 22:51:17 17 C 73 %
356 26-05-2014 23:03:17 16.7 C 76 %
357 26-05-2014 23:15:17 16.4 C 77 %
358 26-05-2014 23:27:17 16.3 C 79 %
359 26-05-2014 23:39:17 16.2 C 80 %
360 26-05-2014 23:51:17 16.3 C 82 %
361 27-05-2014 00:03:17 16.3 C 83 %
362 27-05-2014 00:15:17 16.1 C 84 %
363 27-05-2014 00:27:17 15.9 C 85 %
364 27-05-2014 00:39:17 15.9 C 86 %
365 27-05-2014 00:51:17 15.8 C 86 %
366 27-05-2014 01:03:17 15.8 C 86 %
367 27-05-2014 01:15:17 15.6 C 87 %
368 27-05-2014 01:27:17 15.3 C 87 %
369 27-05-2014 01:39:17 15.2 C 87 %
370 27-05-2014 01:51:17 15.1 C 87 %
371 27-05-2014 02:03:17 15.1 C 87 %
372 27-05-2014 02:15:17 15.1 C 87 %
373 27-05-2014 02:27:17 15 C 88 %
374 27-05-2014 02:39:17 15 C 88 %
375 27-05-2014 02:51:16 15 C 88 %
Sensor: Nr:Datum:Temp:Feuchte:
Aussen-T/F 376 27-05-2014 03:03:17 15 C 88 %
377 27-05-2014 03:15:17 14.9 C 89 %
378 27-05-2014 03:27:17 14.8 C 89 %
379 27-05-2014 03:39:17 14.8 C 89 %
380 27-05-2014 03:51:17 14.8 C 89 %
381 27-05-2014 04:03:17 14.8 C 89 %
382 27-05-2014 04:15:17 14.8 C 89 %
383 27-05-2014 04:27:17 14.8 C 89 %
384 27-05-2014 04:39:17 14.7 C 89 %
385 27-05-2014 04:51:17 14.6 C 90 %
386 27-05-2014 05:03:17 14.6 C 90 %
387 27-05-2014 05:15:17 14.5 C 90 %
388 27-05-2014 05:27:17 14.4 C 90 %
389 27-05-2014 05:39:17 14.4 C 90 %
390 27-05-2014 05:51:17 14.4 C 90 %
391 27-05-2014 06:03:17 14.4 C 90 %
392 27-05-2014 06:15:17 14.4 C 90 %
393 27-05-2014 06:27:17 14.5 C 90 %
394 27-05-2014 06:39:17 14.6 C 90 %
395 27-05-2014 06:51:17 14.7 C 90 %
396 27-05-2014 07:03:17 14.7 C 90 %
397 27-05-2014 07:15:17 14.8 C 90 %
398 27-05-2014 07:27:18 14.9 C 90 %
399 27-05-2014 07:39:17 14.8 C 90 %
400 27-05-2014 07:51:17 15 C 90 %
Sensor: Nr:Datum:Temp:Feuchte:
Aussen-T/F 401 27-05-2014 08:03:17 15 C 89 %
402 27-05-2014 08:15:17 15 C 89 %
403 27-05-2014 08:27:17 15 C 89 %
404 27-05-2014 08:39:17 15.1 C 90 %
405 27-05-2014 08:51:16 14.9 C 90 %
406 27-05-2014 09:03:17 14.7 C 90 %
407 27-05-2014 09:15:17 14.6 C 90 %
408 27-05-2014 09:27:17 14.4 C 90 %
409 27-05-2014 09:39:17 14.4 C 90 %
410 27-05-2014 09:51:17 14.5 C 90 %
411 27-05-2014 10:03:17 14.5 C 90 %
412 27-05-2014 10:15:17 14.3 C 90 %
413 27-05-2014 10:27:17 14.4 C 90 %
414 27-05-2014 10:39:17 14.5 C 90 %
415 27-05-2014 10:51:17 14.8 C 90 %
416 27-05-2014 11:03:17 15.1 C 89 %
417 27-05-2014 11:15:17 15.2 C 89 %
418 27-05-2014 11:27:17 14.9 C 90 %
419 27-05-2014 11:39:17 14.9 C 90 %
420 27-05-2014 11:51:17 14.8 C 90 %
421 27-05-2014 12:03:17 14.7 C 89 %
422 27-05-2014 12:15:17 14.8 C 90 %
423 27-05-2014 12:27:17 15.2 C 89 %
424 27-05-2014 12:39:17 15.4 C 88 %
425 27-05-2014 12:51:17 16 C 87 %
Sensor: Nr:Datum:Temp:Feuchte:
Aussen-T/F 426 27-05-2014 13:03:17 16.4 C 85 %
427 27-05-2014 13:15:17 17.2 C 82 %
428 27-05-2014 13:27:17 17.7 C 75 %
429 27-05-2014 13:39:17 18 C 69 %
430 27-05-2014 13:51:17 18.6 C 67 %
431 27-05-2014 14:03:17 18.6 C 67 %
432 27-05-2014 14:15:17 18.6 C 67 %
433 27-05-2014 14:27:17 18.5 C 63 %
434 27-05-2014 14:39:17 18.5 C 66 %
435 27-05-2014 14:51:17 17.9 C 63 %
436 27-05-2014 15:03:17 18.1 C 60 %
437 27-05-2014 15:15:17 16.9 C 67 %
438 27-05-2014 15:27:18 16.6 C 68 %
439 27-05-2014 15:39:17 16.2 C 70 %
440 27-05-2014 15:51:17 16.1 C 72 %
441 27-05-2014 16:03:17 16 C 73 %
442 27-05-2014 16:15:17 16.2 C 72 %
443 27-05-2014 16:27:17 16.2 C 74 %
444 27-05-2014 16:39:17 16.1 C 74 %
445 27-05-2014 16:51:17 15.7 C 77 %
446 27-05-2014 17:03:17 15.5 C 79 %
447 27-05-2014 17:15:17 15.4 C 80 %
448 27-05-2014 17:27:17 15.6 C 81 %
449 27-05-2014 17:39:17 16 C 81 %
450 27-05-2014 17:51:17 16 C 81 %
Sensor: Nr:Datum:Temp:Feuchte:
Aussen-T/F 451 27-05-2014 18:03:17 15.9 C 79 %
452 27-05-2014 18:15:17 15.8 C 77 %
453 27-05-2014 18:27:17 15.8 C 78 %
454 27-05-2014 18:39:17 15.4 C 78 %
455 27-05-2014 18:51:17 15.1 C 79 %
456 27-05-2014 19:03:17 15.1 C 80 %
457 27-05-2014 19:15:17 15.1 C 81 %
458 27-05-2014 19:27:17 15.2 C 82 %
459 27-05-2014 19:39:17 15.2 C 82 %
460 27-05-2014 19:51:17 15.4 C 83 %
461 27-05-2014 20:03:17 15.4 C 83 %
462 27-05-2014 20:15:17 15.2 C 83 %
463 27-05-2014 20:27:17 15 C 84 %
464 27-05-2014 20:39:17 14.8 C 85 %
465 27-05-2014 20:51:17 14.3 C 85 %
466 27-05-2014 21:03:17 14.2 C 85 %
467 27-05-2014 21:15:17 14.1 C 85 %
468 27-05-2014 21:27:17 14 C 85 %
469 27-05-2014 21:39:17 13.9 C 86 %
470 27-05-2014 21:51:17 13.8 C 86 %
471 27-05-2014 22:03:17 13.8 C 86 %
472 27-05-2014 22:15:17 13.7 C 86 %
473 27-05-2014 22:27:17 13.6 C 86 %
474 27-05-2014 22:39:17 13.6 C 86 %
475 27-05-2014 22:51:17 13.6 C 86 %
Sensor: Nr:Datum:Temp:Feuchte:
Aussen-T/F 476 27-05-2014 23:03:17 13.5 C 87 %
477 27-05-2014 23:15:17 13.5 C 87 %
478 27-05-2014 23:27:17 13.4 C 87 %
479 27-05-2014 23:39:17 13.3 C 86 %
480 27-05-2014 23:51:17 13.5 C 86 %
481 28-05-2014 00:03:17 13.5 C 85 %
482 28-05-2014 00:15:17 13.4 C 84 %
483 28-05-2014 00:27:17 13.3 C 84 %
484 28-05-2014 00:39:17 13.3 C 84 %
485 28-05-2014 00:51:17 13.2 C 84 %
486 28-05-2014 01:03:17 13.2 C 84 %
487 28-05-2014 01:15:17 13.1 C 85 %
488 28-05-2014 01:27:17 13.1 C 85 %
489 28-05-2014 01:39:17 12.8 C 85 %
490 28-05-2014 01:51:17 12.5 C 86 %
491 28-05-2014 02:03:17 12.4 C 86 %
492 28-05-2014 02:15:17 12.2 C 86 %
493 28-05-2014 02:27:17 12.6 C 86 %
494 28-05-2014 02:39:17 12.6 C 87 %
495 28-05-2014 02:51:17 12.6 C 87 %
496 28-05-2014 03:03:17 12.6 C 87 %
497 28-05-2014 03:15:17 12.5 C 87 %
498 28-05-2014 03:27:17 12.5 C 87 %
499 28-05-2014 03:39:17 12.5 C 87 %
500 28-05-2014 03:51:17 12.5 C 87 %
Sensor: Nr:Datum:Temp:Feuchte:
Aussen-T/F 501 28-05-2014 04:03:17 12.5 C 87 %
502 28-05-2014 04:15:17 12.2 C 87 %
503 28-05-2014 04:27:17 12.2 C 87 %
504 28-05-2014 04:39:17 11.9 C 88 %
505 28-05-2014 04:51:17 11.9 C 88 %
506 28-05-2014 05:03:17 11.6 C 88 %
507 28-05-2014 05:15:17 11.7 C 88 %
508 28-05-2014 05:27:17 11.8 C 88 %
509 28-05-2014 05:39:17 11.7 C 88 %
510 28-05-2014 05:51:17 11.7 C 88 %
511 28-05-2014 06:03:17 11.8 C 89 %
512 28-05-2014 06:15:17 12 C 88 %
513 28-05-2014 06:27:17 12.2 C 88 %
514 28-05-2014 06:39:17 12.4 C 88 %
515 28-05-2014 06:51:17 12.7 C 88 %
516 28-05-2014 07:03:17 12.8 C 88 %
517 28-05-2014 07:15:17 13 C 87 %
518 28-05-2014 07:27:17 13.2 C 86 %
519 28-05-2014 07:39:17 13.4 C 81 %
520 28-05-2014 07:51:17 13.8 C 75 %
521 28-05-2014 08:03:17 14 C 71 %
522 28-05-2014 08:15:17 14 C 71 %
523 28-05-2014 08:27:17 14.4 C 66 %
524 28-05-2014 08:39:17 14.5 C 66 %
525 28-05-2014 08:51:17 14.7 C 65 %
Sensor: Nr:Datum:Temp:Feuchte:
Aussen-T/F 526 28-05-2014 09:03:17 14.9 C 64 %
527 28-05-2014 09:15:17 14.8 C 64 %
528 28-05-2014 09:27:17 15 C 63 %
529 28-05-2014 09:39:17 15.3 C 61 %
530 28-05-2014 09:51:17 15.6 C 61 %
531 28-05-2014 10:03:17 15.8 C 60 %
532 28-05-2014 10:15:17 16.4 C 58 %
533 28-05-2014 10:27:17 16 C 57 %
534 28-05-2014 10:39:17 15.8 C 58 %
535 28-05-2014 10:51:16 15.6 C 61 %
536 28-05-2014 11:03:17 15.6 C 60 %
537 28-05-2014 11:15:16 16 C 59 %
538 28-05-2014 11:27:17 16.3 C 56 %
539 28-05-2014 11:39:17 16.7 C 55 %
540 28-05-2014 11:51:17 16.9 C 51 %
541 28-05-2014 12:03:17 16.7 C 51 %
542 28-05-2014 12:15:17 16.6 C 52 %
543 28-05-2014 12:27:17 17.2 C 48 %
544 28-05-2014 12:39:17 17.9 C 48 %
545 28-05-2014 12:51:17 17.7 C 47 %
546 28-05-2014 13:03:17 17.1 C 51 %
547 28-05-2014 13:15:17 16.9 C 53 %
548 28-05-2014 13:27:17 17 C 51 %
549 28-05-2014 13:39:17 16.9 C 54 %
550 28-05-2014 13:51:17 16.9 C 54 %
Sensor: Nr:Datum:Temp:Feuchte:
Aussen-T/F 551 28-05-2014 14:03:17 17.7 C 48 %
552 28-05-2014 14:15:17 17.2 C 51 %
553 28-05-2014 14:27:17 17.6 C 54 %
554 28-05-2014 14:39:17 17.7 C 50 %
555 28-05-2014 14:51:17 18.1 C 47 %
556 28-05-2014 15:03:17 18.1 C 48 %
557 28-05-2014 15:15:17 18.1 C 48 %
558 28-05-2014 15:27:17 18.2 C 49 %
559 28-05-2014 15:39:17 17.5 C 53 %
560 28-05-2014 15:51:17 17.5 C 53 %
561 28-05-2014 16:03:17 17.5 C 53 %
562 28-05-2014 16:15:17 17.2 C 51 %
563 28-05-2014 16:27:17 17.5 C 56 %
564 28-05-2014 16:39:17 17.5 C 56 %
565 28-05-2014 16:51:17 17.8 C 56 %
566 28-05-2014 17:03:17 17.4 C 60 %
567 28-05-2014 17:15:17 17.2 C 58 %
568 28-05-2014 17:27:17 17.2 C 58 %
569 28-05-2014 17:39:18 17.1 C 62 %
570 28-05-2014 17:51:17 17.2 C 63 %
571 28-05-2014 18:03:17 17.9 C 64 %
572 28-05-2014 18:15:17 18.5 C 55 %
573 28-05-2014 18:27:17 18.5 C 56 %
574 28-05-2014 18:39:17 17.9 C 60 %
575 28-05-2014 18:51:17 17.6 C 62 %
Sensor: Nr:Datum:Temp:Feuchte:
Aussen-T/F 576 28-05-2014 19:03:17 17.5 C 63 %
577 28-05-2014 19:15:17 17.1 C 64 %
578 28-05-2014 19:27:17 17.3 C 65 %
579 28-05-2014 19:39:17 17.5 C 63 %
580 28-05-2014 19:51:17 17.2 C 61 %
581 28-05-2014 20:03:17 17 C 61 %
582 28-05-2014 20:15:17 16.4 C 65 %
583 28-05-2014 20:27:17 15.9 C 68 %
584 28-05-2014 20:39:17 15.5 C 70 %
585 28-05-2014 20:51:17 15.1 C 70 %
586 28-05-2014 21:03:17 15.1 C 70 %
587 28-05-2014 21:15:17 13.9 C 74 %
588 28-05-2014 21:27:17 13.5 C 74 %
589 28-05-2014 21:39:17 13.4 C 75 %
590 28-05-2014 21:51:17 13.4 C 75 %
591 28-05-2014 22:03:17 12.8 C 78 %
592 28-05-2014 22:15:17 12.7 C 78 %
593 28-05-2014 22:27:17 12.6 C 79 %
594 28-05-2014 22:39:17 12.6 C 79 %
595 28-05-2014 22:51:16 12.1 C 79 %
596 28-05-2014 23:03:17 11.9 C 81 %
597 28-05-2014 23:15:17 11.7 C 81 %
598 28-05-2014 23:27:17 11.5 C 82 %
599 28-05-2014 23:39:17 11.3 C 82 %
600 28-05-2014 23:51:17 11.2 C 82 %
Sensor: Nr:Datum:Temp:Feuchte:
Aussen-T/F 601 29-05-2014 00:03:17 11.2 C 82 %
602 29-05-2014 00:15:17 11.1 C 83 %
603 29-05-2014 00:27:18 10.7 C 84 %
604 29-05-2014 00:39:17 10.7 C 84 %
605 29-05-2014 00:51:17 10.7 C 84 %
606 29-05-2014 01:03:17 10.6 C 85 %
607 29-05-2014 01:15:17 10.4 C 85 %
608 29-05-2014 01:27:17 10.4 C 85 %
609 29-05-2014 01:39:17 10.2 C 85 %
610 29-05-2014 01:51:17 10.1 C 85 %
611 29-05-2014 02:03:17 10.1 C 86 %
612 29-05-2014 02:15:17 10.1 C 86 %
613 29-05-2014 02:27:17 10 C 86 %
614 29-05-2014 02:39:17 9.7 C 88 %
615 29-05-2014 02:51:17 9.5 C 88 %
616 29-05-2014 03:03:18 9.6 C 88 %
617 29-05-2014 03:15:17 9.7 C 88 %
618 29-05-2014 03:27:17 9.6 C 88 %
619 29-05-2014 03:39:17 9.6 C 88 %
620 29-05-2014 03:51:17 9.5 C 89 %
621 29-05-2014 04:03:17 9.3 C 89 %
622 29-05-2014 04:15:17 9.6 C 89 %
623 29-05-2014 04:27:17 9.8 C 89 %
624 29-05-2014 04:39:17 9.9 C 89 %
625 29-05-2014 04:51:17 9.8 C 89 %
Sensor: Nr:Datum:Temp:Feuchte:
Aussen-T/F 626 29-05-2014 05:03:17 9.7 C 89 %
627 29-05-2014 05:15:17 9.6 C 89 %
628 29-05-2014 05:27:17 9.3 C 89 %
629 29-05-2014 05:39:17 9.2 C 89 %
630 29-05-2014 05:51:17 9.3 C 89 %
631 29-05-2014 06:03:17 9.3 C 90 %
632 29-05-2014 06:15:17 9.3 C 90 %
633 29-05-2014 06:27:17 9.4 C 90 %
634 29-05-2014 06:39:17 9.6 C 90 %
635 29-05-2014 06:51:17 9.7 C 90 %
636 29-05-2014 07:03:17 9.7 C 90 %
637 29-05-2014 07:15:16 9.8 C 90 %
638 29-05-2014 07:27:16 9.8 C 90 %
639 29-05-2014 07:39:17 10 C 88 %
640 29-05-2014 07:51:17 10.2 C 88 %
641 29-05-2014 08:03:17 10.4 C 88 %
642 29-05-2014 08:15:17 10.9 C 88 %
643 29-05-2014 08:27:17 11 C 86 %
644 29-05-2014 08:39:17 11.5 C 85 %
645 29-05-2014 08:51:17 11.5 C 85 %
646 29-05-2014 09:03:17 12 C 81 %
647 29-05-2014 09:15:17 12.3 C 79 %
648 29-05-2014 09:27:17 12.5 C 79 %
649 29-05-2014 09:39:17 13.2 C 76 %
650 29-05-2014 09:51:17 13.7 C 74 %
Sensor: Nr:Datum:Temp:Feuchte:
Aussen-T/F 651 29-05-2014 10:03:17 14.2 C 73 %
652 29-05-2014 10:15:17 14.2 C 73 %
653 29-05-2014 10:27:17 14.8 C 72 %
654 29-05-2014 10:39:17 15.3 C 69 %
655 29-05-2014 10:51:17 15.9 C 67 %
656 29-05-2014 11:03:17 16.2 C 65 %
657 29-05-2014 11:15:17 15.9 C 66 %
658 29-05-2014 11:27:17 17.2 C 60 %
659 29-05-2014 11:39:17 17.7 C 59 %
660 29-05-2014 11:51:17 18 C 55 %
661 29-05-2014 12:03:17 18.4 C 55 %
662 29-05-2014 12:15:17 18.6 C 53 %
663 29-05-2014 12:27:17 19.1 C 53 %
664 29-05-2014 12:39:17 19.1 C 52 %
665 29-05-2014 12:51:17 18.9 C 50 %
666 29-05-2014 13:03:17 18.9 C 52 %
667 29-05-2014 13:15:16 19.5 C 50 %
668 29-05-2014 13:27:16 19.8 C 47 %
669 29-05-2014 13:39:17 20 C 46 %
670 29-05-2014 13:51:17 20.2 C 46 %
671 29-05-2014 14:03:17 20 C 45 %
672 29-05-2014 14:15:17 20.4 C 45 %
673 29-05-2014 14:27:17 19.7 C 46 %
674 29-05-2014 14:39:17 19.4 C 48 %
675 29-05-2014 14:51:17 19.6 C 49 %
Sensor: Nr:Datum:Temp:Feuchte:
Aussen-T/F 676 29-05-2014 15:03:17 19.4 C 49 %
677 29-05-2014 15:15:17 19.3 C 48 %
678 29-05-2014 15:27:17 19.3 C 48 %
679 29-05-2014 15:39:17 18.3 C 51 %
680 29-05-2014 15:51:17 17.8 C 53 %
681 29-05-2014 16:03:17 17.5 C 54 %
682 29-05-2014 16:15:17 17.4 C 55 %
683 29-05-2014 16:27:17 17.4 C 55 %
684 29-05-2014 16:39:17 17.1 C 55 %
685 29-05-2014 16:51:17 17.2 C 55 %
686 29-05-2014 17:03:17 17.1 C 56 %
687 29-05-2014 17:15:17 17 C 57 %
688 29-05-2014 17:27:17 16.8 C 58 %
689 29-05-2014 17:39:18 16.7 C 59 %
690 29-05-2014 17:51:17 16.4 C 59 %
691 29-05-2014 18:03:17 16.4 C 60 %
692 29-05-2014 18:15:17 16.2 C 60 %
693 29-05-2014 18:27:17 16.1 C 59 %
694 29-05-2014 18:39:16 15.8 C 65 %
695 29-05-2014 18:51:17 15.4 C 68 %
696 29-05-2014 19:03:17 15.2 C 70 %
697 29-05-2014 19:15:17 15 C 70 %
698 29-05-2014 19:27:17 15.2 C 71 %
699 29-05-2014 19:39:17 15.1 C 70 %
700 29-05-2014 19:51:17 15 C 70 %
Sensor: Nr:Datum:Temp:Feuchte:
Aussen-T/F 701 29-05-2014 20:03:17 14.9 C 71 %
702 29-05-2014 20:15:17 14.7 C 71 %
703 29-05-2014 20:27:17 14.7 C 71 %
704 29-05-2014 20:39:17 14.3 C 73 %
705 29-05-2014 20:51:17 14.1 C 74 %
706 29-05-2014 21:03:17 14.1 C 75 %
707 29-05-2014 21:15:17 14.1 C 76 %
708 29-05-2014 21:27:17 14 C 76 %
709 29-05-2014 21:39:17 13.9 C 77 %
710 29-05-2014 21:51:17 13.8 C 77 %
711 29-05-2014 22:03:17 13.6 C 77 %
712 29-05-2014 22:15:17 13.6 C 77 %
713 29-05-2014 22:27:17 13.2 C 74 %
714 29-05-2014 22:39:17 13.1 C 73 %
715 29-05-2014 22:51:17 13 C 72 %
716 29-05-2014 23:03:17 12.8 C 72 %
717 29-05-2014 23:15:17 12.6 C 71 %
718 29-05-2014 23:27:17 12.6 C 71 %
719 29-05-2014 23:39:17 12.5 C 71 %
720 29-05-2014 23:51:17 12.3 C 71 %
721 30-05-2014 00:03:17 12.3 C 70 %
722 30-05-2014 00:15:17 12.2 C 70 %
723 30-05-2014 00:27:17 11.7 C 70 %
724 30-05-2014 00:39:17 11.7 C 70 %
725 30-05-2014 00:51:17 11.7 C 70 %
Sensor: Nr:Datum:Temp:Feuchte:
Aussen-T/F 726 30-05-2014 01:03:17 11.8 C 71 %
727 30-05-2014 01:15:17 11.7 C 71 %
728 30-05-2014 01:27:17 11.5 C 70 %
729 30-05-2014 01:39:17 11.4 C 69 %
730 30-05-2014 01:51:17 11.4 C 68 %
731 30-05-2014 02:03:17 11.3 C 67 %
732 30-05-2014 02:15:17 11.3 C 68 %
733 30-05-2014 02:27:17 11.3 C 68 %
734 30-05-2014 02:39:17 11.3 C 69 %
735 30-05-2014 02:51:17 11.3 C 69 %
736 30-05-2014 03:03:17 11.2 C 69 %
737 30-05-2014 03:15:17 11.1 C 68 %
738 30-05-2014 03:27:17 11.1 C 68 %
739 30-05-2014 03:39:17 11.1 C 68 %
740 30-05-2014 03:51:17 11.1 C 67 %
741 30-05-2014 04:03:17 11.1 C 68 %
742 30-05-2014 04:15:17 10.9 C 68 %
743 30-05-2014 04:27:17 11.2 C 68 %
744 30-05-2014 04:39:17 10.8 C 68 %
745 30-05-2014 04:51:17 10.8 C 67 %
746 30-05-2014 05:03:17 10.8 C 68 %
747 30-05-2014 05:15:17 10.7 C 68 %
748 30-05-2014 05:27:17 10.6 C 68 %
749 30-05-2014 05:39:17 10.6 C 68 %
750 30-05-2014 05:51:17 10.6 C 68 %
Sensor: Nr:Datum:Temp:Feuchte:
Aussen-T/F 751 30-05-2014 06:03:17 10.6 C 68 %
752 30-05-2014 06:15:17 10.5 C 68 %
753 30-05-2014 06:27:17 10.6 C 67 %
754 30-05-2014 06:39:17 10.8 C 65 %
755 30-05-2014 06:51:17 10.8 C 65 %
756 30-05-2014 07:03:17 10.8 C 63 %
757 30-05-2014 07:15:17 10.9 C 62 %
758 30-05-2014 07:27:17 10.9 C 62 %
759 30-05-2014 07:39:17 10.9 C 62 %
760 30-05-2014 07:51:17 11.6 C 58 %
761 30-05-2014 08:03:17 12 C 56 %
762 30-05-2014 08:15:17 12 C 56 %
763 30-05-2014 08:27:17 11.8 C 55 %
764 30-05-2014 08:39:17 11.8 C 55 %
765 30-05-2014 08:51:17 14.3 C 45 %
766 30-05-2014 09:03:17 14.2 C 41 %
767 30-05-2014 09:15:17 17.3 C 40 %
768 30-05-2014 09:27:17 17.3 C 36 %
769 30-05-2014 09:39:17 16.5 C 39 %
770 30-05-2014 09:51:17 14.2 C 42 %
771 30-05-2014 10:03:17 14.2 C 42 %
772 30-05-2014 10:15:17 14.2 C 42 %
773 30-05-2014 10:27:17 14.3 C 45 %
774 30-05-2014 10:39:17 14.6 C 43 %
775 30-05-2014 10:51:17 15.6 C 42 %
Sensor: Nr:Datum:Temp:Feuchte:
Aussen-T/F 776 30-05-2014 11:03:17 15.4 C 42 %
777 30-05-2014 11:15:17 15.6 C 42 %
778 30-05-2014 11:27:17 15.4 C 42 %
779 30-05-2014 11:39:17 14.6 C 42 %
780 30-05-2014 11:51:17 15.6 C 40 %
781 30-05-2014 12:03:17 16 C 39 %
782 30-05-2014 12:15:17 15.4 C 39 %
783 30-05-2014 12:27:17 15.4 C 39 %
784 30-05-2014 12:39:17 15.4 C 39 %
785 30-05-2014 12:51:17 16.5 C 39 %
786 30-05-2014 13:03:17 17.1 C 37 %
787 30-05-2014 13:15:17 17 C 36 %
788 30-05-2014 13:27:17 17.7 C 36 %
789 30-05-2014 13:39:17 17.2 C 36 %
790 30-05-2014 13:51:17 18.1 C 37 %
791 30-05-2014 14:03:17 19.4 C 34 %
792 30-05-2014 14:15:17 19.1 C 34 %
793 30-05-2014 14:27:17 18.8 C 33 %
794 30-05-2014 14:39:17 19.1 C 33 %
795 30-05-2014 14:51:17 18.7 C 33 %
796 30-05-2014 15:03:18 18.3 C 34 %
797 30-05-2014 15:15:17 17.7 C 36 %
798 30-05-2014 15:27:17 19.1 C 33 %
799 30-05-2014 15:39:17 19.9 C 33 %
800 30-05-2014 15:51:17 21.1 C 31 %
Sensor: Nr:Datum:Temp:Feuchte:
Aussen-T/F 801 30-05-2014 16:03:17 20.4 C 31 %
802 30-05-2014 16:15:17 20 C 32 %
803 30-05-2014 16:27:17 20 C 32 %
804 30-05-2014 16:39:17 23 C 25 %
805 30-05-2014 16:51:17 22.4 C 26 %
806 30-05-2014 17:03:17 19.4 C 34 %
807 30-05-2014 17:15:17 18.8 C 36 %
808 30-05-2014 17:27:17 18.1 C 36 %
809 30-05-2014 17:39:17 19.3 C 35 %
810 30-05-2014 17:51:17 19.3 C 35 %
811 30-05-2014 18:03:17 22.6 C 25 %
812 30-05-2014 18:15:17 23.4 C 23 %
813 30-05-2014 18:27:17 22.8 C 25 %
814 30-05-2014 18:39:17 22.1 C 29 %
815 30-05-2014 18:51:17 22.1 C 25 %
816 30-05-2014 19:03:17 22.1 C 25 %
817 30-05-2014 19:15:17 17.7 C 36 %
818 30-05-2014 19:27:17 17.7 C 36 %
819 30-05-2014 19:39:18 17.7 C 36 %
820 30-05-2014 19:51:17 16.4 C 40 %
821 30-05-2014 20:03:17 16.4 C 40 %
822 30-05-2014 20:15:17 16 C 43 %
823 30-05-2014 20:27:17 15.7 C 43 %
824 30-05-2014 20:39:17 15.2 C 43 %
825 30-05-2014 20:51:17 14.5 C 50 %
Sensor: Nr:Datum:Temp:Feuchte:
Aussen-T/F 826 30-05-2014 21:03:16 13.8 C 53 %
827 30-05-2014 21:15:17 13.3 C 53 %
828 30-05-2014 21:27:17 12.6 C 56 %
829 30-05-2014 21:39:17 12.2 C 56 %
830 30-05-2014 21:51:17 11.7 C 58 %
831 30-05-2014 22:03:17 11.2 C 59 %
832 30-05-2014 22:15:17 10.8 C 61 %
833 30-05-2014 22:27:17 10.8 C 61 %
834 30-05-2014 22:39:17 10.8 C 61 %
835 30-05-2014 22:51:17 10.8 C 61 %
836 30-05-2014 23:03:17 10.8 C 61 %
837 30-05-2014 23:15:17 10.8 C 61 %
838 30-05-2014 23:27:17 9 C 69 %
839 30-05-2014 23:39:17 8.9 C 70 %
840 30-05-2014 23:51:17 8.6 C 71 %
Sensor: Nr:Datum:Temp:Feuchte:
G-T/H 1 24-05-2014 00:02:17 16.9 C 68 %
2 24-05-2014 00:14:17 16.9 C 68 %
3 24-05-2014 00:26:17 16.8 C 68 %
4 24-05-2014 00:38:17 16.8 C 68 %
5 24-05-2014 00:50:17 16.8 C 68 %
6 24-05-2014 01:02:17 16.8 C 68 %
7 24-05-2014 01:14:17 16.8 C 68 %
8 24-05-2014 01:26:17 16.8 C 68 %
9 24-05-2014 01:38:17 16.8 C 68 %
10 24-05-2014 01:50:17 16.7 C 68 %
11 24-05-2014 02:02:17 16.7 C 68 %
12 24-05-2014 02:14:17 16.7 C 69 %
13 24-05-2014 02:26:17 16.6 C 69 %
14 24-05-2014 02:38:17 16.7 C 69 %
15 24-05-2014 02:50:17 16.6 C 69 %
16 24-05-2014 03:02:17 16.6 C 69 %
17 24-05-2014 03:14:17 16.6 C 68 %
18 24-05-2014 03:26:17 16.6 C 68 %
19 24-05-2014 03:38:17 16.6 C 68 %
20 24-05-2014 03:50:17 16.5 C 68 %
21 24-05-2014 04:02:17 16.6 C 68 %
22 24-05-2014 04:14:17 16.5 C 68 %
23 24-05-2014 04:26:17 16.5 C 68 %
24 24-05-2014 04:38:17 16.5 C 68 %
25 24-05-2014 04:50:17 16.5 C 68 %
Sensor: Nr:Datum:Temp:Feuchte:
G-T/H 26 24-05-2014 05:02:17 16.4 C 68 %
27 24-05-2014 05:14:17 16.4 C 68 %
28 24-05-2014 05:26:17 16.4 C 68 %
29 24-05-2014 05:38:17 16.4 C 68 %
30 24-05-2014 05:50:17 16.4 C 68 %
31 24-05-2014 06:02:17 16.3 C 68 %
32 24-05-2014 06:14:17 16.3 C 68 %
33 24-05-2014 06:26:17 16.3 C 68 %
34 24-05-2014 06:38:17 16.2 C 68 %
35 24-05-2014 06:50:17 16.2 C 69 %
36 24-05-2014 07:02:17 16.3 C 69 %
37 24-05-2014 07:14:17 16.2 C 69 %
38 24-05-2014 07:26:17 16.2 C 69 %
39 24-05-2014 07:38:17 16.2 C 69 %
40 24-05-2014 07:50:17 16.2 C 69 %
41 24-05-2014 08:02:17 16.1 C 69 %
42 24-05-2014 08:14:17 16.1 C 69 %
43 24-05-2014 08:26:17 16.1 C 69 %
44 24-05-2014 08:38:17 16.1 C 69 %
45 24-05-2014 08:50:17 16.1 C 68 %
46 24-05-2014 09:02:17 16 C 68 %
47 24-05-2014 09:14:17 16.1 C 68 %
48 24-05-2014 09:26:17 16 C 68 %
49 24-05-2014 09:38:17 16 C 68 %
50 24-05-2014 09:50:17 16 C 68 %
Sensor: Nr:Datum:Temp:Feuchte:
G-T/H 51 24-05-2014 10:02:17 16.1 C 68 %
52 24-05-2014 10:14:17 16.1 C 68 %
53 24-05-2014 10:26:17 16.1 C 68 %
54 24-05-2014 10:38:17 16.1 C 68 %
55 24-05-2014 10:50:17 16 C 68 %
56 24-05-2014 11:02:17 16 C 68 %
57 24-05-2014 11:14:17 16 C 68 %
58 24-05-2014 11:26:17 16 C 68 %
59 24-05-2014 11:38:17 16 C 67 %
60 24-05-2014 11:50:17 16 C 67 %
61 24-05-2014 12:02:17 16 C 67 %
62 24-05-2014 12:14:17 16.1 C 67 %
63 24-05-2014 12:26:16 16.1 C 67 %
64 24-05-2014 12:38:17 16.1 C 67 %
65 24-05-2014 12:50:17 16.1 C 67 %
66 24-05-2014 13:02:17 16.1 C 67 %
67 24-05-2014 13:14:17 16.1 C 67 %
68 24-05-2014 13:26:17 16.1 C 67 %
69 24-05-2014 13:38:17 16.1 C 67 %
70 24-05-2014 13:50:17 16.1 C 67 %
71 24-05-2014 14:02:17 16.1 C 67 %
72 24-05-2014 14:14:17 16.1 C 67 %
73 24-05-2014 14:26:17 16.1 C 67 %
74 24-05-2014 14:38:17 16.1 C 67 %
75 24-05-2014 14:50:17 16.1 C 67 %
Sensor: Nr:Datum:Temp:Feuchte:
G-T/H 76 24-05-2014 15:02:17 16.1 C 67 %
77 24-05-2014 15:14:17 16.2 C 67 %
78 24-05-2014 15:26:17 16.6 C 65 %
79 24-05-2014 15:38:17 16.9 C 62 %
80 24-05-2014 15:50:17 17 C 60 %
81 24-05-2014 16:02:17 17 C 59 %
82 24-05-2014 16:14:17 17 C 58 %
83 24-05-2014 16:26:17 17 C 58 %
84 24-05-2014 16:38:17 17.2 C 58 %
85 24-05-2014 16:50:17 17.3 C 57 %
86 24-05-2014 17:02:17 17.5 C 56 %
87 24-05-2014 17:14:17 17.6 C 56 %
88 24-05-2014 17:26:17 17.6 C 55 %
89 24-05-2014 17:38:17 17.7 C 54 %
90 24-05-2014 17:50:17 17.9 C 52 %
91 24-05-2014 18:02:17 18.2 C 51 %
92 24-05-2014 18:14:17 18.3 C 52 %
93 24-05-2014 18:26:17 18.2 C 53 %
94 24-05-2014 18:38:17 18.1 C 53 %
95 24-05-2014 18:50:17 18 C 54 %
96 24-05-2014 19:02:17 17.9 C 56 %
97 24-05-2014 19:14:17 17.9 C 56 %
98 24-05-2014 19:26:17 17.8 C 57 %
99 24-05-2014 19:38:17 17.7 C 57 %
100 24-05-2014 19:50:17 17.7 C 58 %
Sensor: Nr:Datum:Temp:Feuchte:
G-T/H 101 24-05-2014 20:02:17 17.6 C 58 %
102 24-05-2014 20:14:17 17.6 C 59 %
103 24-05-2014 20:26:17 17.6 C 59 %
104 24-05-2014 20:38:17 17.6 C 59 %
105 24-05-2014 20:50:17 17.5 C 59 %
106 24-05-2014 21:02:17 17.4 C 60 %
107 24-05-2014 21:14:17 17.4 C 60 %
108 24-05-2014 21:26:17 17.3 C 60 %
109 24-05-2014 21:38:17 17.3 C 60 %
110 24-05-2014 21:51:17 17.2 C 60 %
111 24-05-2014 22:02:18 17.2 C 61 %
112 24-05-2014 22:14:18 17.2 C 61 %
113 24-05-2014 22:27:17 17.1 C 61 %
114 24-05-2014 22:38:17 17 C 61 %
115 24-05-2014 22:50:17 17 C 61 %
116 24-05-2014 23:02:17 16.9 C 62 %
117 24-05-2014 23:14:17 16.9 C 62 %
118 24-05-2014 23:27:17 16.9 C 63 %
119 24-05-2014 23:39:17 16.9 C 63 %
120 24-05-2014 23:51:17 16.8 C 63 %
121 25-05-2014 00:03:17 16.8 C 63 %
122 25-05-2014 00:14:17 16.8 C 64 %
123 25-05-2014 00:26:17 16.7 C 64 %
124 25-05-2014 00:38:17 16.7 C 64 %
125 25-05-2014 00:51:17 16.6 C 64 %
Sensor: Nr:Datum:Temp:Feuchte:
G-T/H 126 25-05-2014 01:14:17 16.6 C 64 %
127 25-05-2014 01:14:17 16.7 C 64 %
128 25-05-2014 01:26:17 16.6 C 64 %
129 25-05-2014 01:39:17 16.5 C 64 %
130 25-05-2014 01:51:17 16.5 C 64 %
131 25-05-2014 02:02:17 16.4 C 64 %
132 25-05-2014 02:14:17 16.4 C 64 %
133 25-05-2014 02:27:17 16.4 C 64 %
134 25-05-2014 02:39:17 16.3 C 64 %
135 25-05-2014 02:50:17 16.3 C 64 %
136 25-05-2014 03:03:17 16.2 C 64 %
137 25-05-2014 03:14:17 16.2 C 64 %
138 25-05-2014 03:26:17 16.2 C 64 %
139 25-05-2014 03:38:17 16.2 C 64 %
140 25-05-2014 03:51:17 16.1 C 63 %
141 25-05-2014 04:03:17 16.1 C 63 %
142 25-05-2014 04:15:17 16.1 C 63 %
143 25-05-2014 04:27:17 16 C 63 %
144 25-05-2014 04:39:17 16 C 62 %
145 25-05-2014 04:51:16 16 C 62 %
146 25-05-2014 05:03:16 15.9 C 63 %
147 25-05-2014 05:15:17 15.9 C 63 %
148 25-05-2014 05:27:17 15.9 C 63 %
149 25-05-2014 05:39:17 15.8 C 62 %
150 25-05-2014 05:51:17 15.8 C 62 %
Sensor: Nr:Datum:Temp:Feuchte:
G-T/H 151 25-05-2014 06:03:17 15.8 C 62 %
152 25-05-2014 06:15:17 15.8 C 62 %
153 25-05-2014 06:27:17 15.6 C 62 %
154 25-05-2014 06:39:16 15.6 C 61 %
155 25-05-2014 06:51:17 15.5 C 61 %
156 25-05-2014 07:03:16 15.5 C 61 %
157 25-05-2014 07:15:16 15.4 C 61 %
158 25-05-2014 07:27:16 15.4 C 61 %
159 25-05-2014 07:39:17 15.4 C 61 %
160 25-05-2014 07:51:17 15.4 C 61 %
161 25-05-2014 08:03:17 15.4 C 62 %
162 25-05-2014 08:15:16 15.4 C 62 %
163 25-05-2014 08:27:16 15.3 C 62 %
164 25-05-2014 08:39:17 15.3 C 62 %
165 25-05-2014 08:51:17 15.3 C 63 %
166 25-05-2014 09:03:17 15.3 C 63 %
167 25-05-2014 09:15:16 15.2 C 63 %
168 25-05-2014 09:27:16 15.3 C 63 %
169 25-05-2014 09:39:17 15.2 C 63 %
170 25-05-2014 09:51:16 15.2 C 64 %
171 25-05-2014 10:03:16 15.2 C 64 %
172 25-05-2014 10:15:16 15.2 C 64 %
173 25-05-2014 10:27:16 15.2 C 64 %
174 25-05-2014 10:39:17 15.2 C 64 %
175 25-05-2014 10:51:17 15.2 C 64 %
Sensor: Nr:Datum:Temp:Feuchte:
G-T/H 176 25-05-2014 11:03:16 15.2 C 64 %
177 25-05-2014 11:15:17 15.2 C 64 %
178 25-05-2014 11:27:17 15.2 C 65 %
179 25-05-2014 11:39:16 15.2 C 65 %
180 25-05-2014 11:51:16 15.2 C 65 %
181 25-05-2014 12:03:17 15.2 C 65 %
182 25-05-2014 12:15:16 15.2 C 64 %
183 25-05-2014 12:27:16 15.2 C 64 %
184 25-05-2014 12:39:17 15.3 C 64 %
185 25-05-2014 12:51:16 15.3 C 64 %
186 25-05-2014 13:03:17 15.3 C 64 %
187 25-05-2014 13:15:16 15.4 C 64 %
188 25-05-2014 13:27:16 15.4 C 64 %
189 25-05-2014 13:39:16 15.4 C 64 %
190 25-05-2014 13:51:16 15.4 C 64 %
191 25-05-2014 14:03:17 15.5 C 64 %
192 25-05-2014 14:15:16 15.6 C 64 %
193 25-05-2014 14:27:16 15.6 C 64 %
194 25-05-2014 14:39:16 15.6 C 64 %
195 25-05-2014 14:51:16 15.7 C 64 %
196 25-05-2014 15:03:16 15.7 C 64 %
197 25-05-2014 15:15:16 15.8 C 64 %
198 25-05-2014 15:27:16 15.8 C 64 %
199 25-05-2014 15:39:16 15.8 C 64 %
200 25-05-2014 15:51:16 15.9 C 64 %
Sensor: Nr:Datum:Temp:Feuchte:
G-T/H 201 25-05-2014 16:03:16 15.9 C 64 %
202 25-05-2014 16:15:16 15.9 C 64 %
203 25-05-2014 16:27:16 16 C 63 %
204 25-05-2014 16:39:17 16 C 63 %
205 25-05-2014 16:51:16 16.1 C 63 %
206 25-05-2014 17:03:16 16.1 C 63 %
207 25-05-2014 17:15:16 16.1 C 64 %
208 25-05-2014 17:27:16 16.2 C 64 %
209 25-05-2014 17:39:17 16.2 C 64 %
210 25-05-2014 17:51:16 16.2 C 64 %
211 25-05-2014 18:03:16 16.2 C 64 %
212 25-05-2014 18:15:16 16.3 C 64 %
213 25-05-2014 18:27:16 16.3 C 64 %
214 25-05-2014 18:39:16 16.3 C 64 %
215 25-05-2014 18:51:16 16.4 C 64 %
216 25-05-2014 19:03:16 16.4 C 64 %
217 25-05-2014 19:15:16 16.4 C 64 %
218 25-05-2014 19:27:16 16.4 C 64 %
219 25-05-2014 19:39:16 16.5 C 64 %
220 25-05-2014 19:51:16 16.4 C 64 %
221 25-05-2014 20:03:16 16.4 C 64 %
222 25-05-2014 20:15:15 16.5 C 64 %
223 25-05-2014 20:27:15 16.4 C 65 %
224 25-05-2014 20:39:16 16.4 C 65 %
225 25-05-2014 20:51:16 16.4 C 65 %
Sensor: Nr:Datum:Temp:Feuchte:
G-T/H 226 25-05-2014 21:03:16 16.4 C 65 %
227 25-05-2014 21:15:16 16.5 C 65 %
228 25-05-2014 21:27:16 16.5 C 66 %
229 25-05-2014 21:39:16 16.5 C 66 %
230 25-05-2014 21:51:16 16.5 C 66 %
231 25-05-2014 22:03:16 16.4 C 66 %
232 25-05-2014 22:15:16 16.5 C 66 %
233 25-05-2014 22:27:16 16.4 C 66 %
234 25-05-2014 22:39:16 16.4 C 66 %
235 25-05-2014 22:51:16 16.5 C 66 %
236 25-05-2014 23:03:16 16.4 C 66 %
237 25-05-2014 23:15:16 16.5 C 66 %
238 25-05-2014 23:27:16 16.5 C 66 %
239 25-05-2014 23:39:16 16.5 C 66 %
240 25-05-2014 23:51:16 16.4 C 67 %
241 26-05-2014 00:03:16 16.4 C 67 %
242 26-05-2014 00:15:16 16.5 C 67 %
243 26-05-2014 00:27:16 16.5 C 67 %
244 26-05-2014 00:39:16 16.4 C 67 %
245 26-05-2014 00:51:16 16.4 C 67 %
246 26-05-2014 01:03:16 16.4 C 67 %
247 26-05-2014 01:15:16 16.4 C 67 %
248 26-05-2014 01:27:16 16.4 C 67 %
249 26-05-2014 01:39:16 16.4 C 67 %
250 26-05-2014 01:51:16 16.4 C 67 %
Sensor: Nr:Datum:Temp:Feuchte:
G-T/H 251 26-05-2014 02:03:16 16.4 C 67 %
252 26-05-2014 02:15:15 16.4 C 67 %
253 26-05-2014 02:27:15 16.3 C 67 %
254 26-05-2014 02:39:15 16.4 C 67 %
255 26-05-2014 02:51:17 16.3 C 67 %
256 26-05-2014 03:03:17 16.3 C 67 %
257 26-05-2014 03:15:17 16.3 C 67 %
258 26-05-2014 03:27:17 16.3 C 67 %
259 26-05-2014 03:39:17 16.3 C 67 %
260 26-05-2014 03:51:17 16.3 C 67 %
261 26-05-2014 04:03:17 16.2 C 67 %
262 26-05-2014 04:15:16 16.2 C 67 %
263 26-05-2014 04:27:16 16.2 C 67 %
264 26-05-2014 04:39:17 16.2 C 67 %
265 26-05-2014 04:51:17 16.2 C 67 %
266 26-05-2014 05:03:17 16.2 C 68 %
267 26-05-2014 05:15:17 16.2 C 68 %
268 26-05-2014 05:27:17 16.2 C 68 %
269 26-05-2014 05:39:17 16.2 C 68 %
270 26-05-2014 05:51:17 16.2 C 68 %
271 26-05-2014 06:03:17 16.1 C 68 %
272 26-05-2014 06:15:16 16.1 C 68 %
273 26-05-2014 06:27:16 16.1 C 68 %
274 26-05-2014 06:39:17 16.1 C 68 %
275 26-05-2014 06:51:17 16.1 C 68 %
Sensor: Nr:Datum:Temp:Feuchte:
G-T/H 276 26-05-2014 07:03:17 16 C 68 %
277 26-05-2014 07:15:16 16 C 68 %
278 26-05-2014 07:27:16 16 C 68 %
279 26-05-2014 07:39:17 16 C 68 %
280 26-05-2014 07:51:17 16 C 68 %
281 26-05-2014 08:03:17 16 C 68 %
282 26-05-2014 08:15:17 16 C 68 %
283 26-05-2014 08:27:17 16 C 68 %
284 26-05-2014 08:39:17 16 C 68 %
285 26-05-2014 08:51:17 16 C 68 %
286 26-05-2014 09:03:17 16 C 68 %
287 26-05-2014 09:15:17 16 C 68 %
288 26-05-2014 09:27:17 16 C 68 %
289 26-05-2014 09:39:17 16 C 68 %
290 26-05-2014 09:51:17 16 C 68 %
291 26-05-2014 10:03:17 16 C 68 %
292 26-05-2014 10:15:17 16 C 67 %
293 26-05-2014 10:27:17 15.9 C 68 %
294 26-05-2014 10:39:17 16 C 67 %
295 26-05-2014 10:51:17 16 C 67 %
296 26-05-2014 11:03:17 16 C 67 %
297 26-05-2014 11:15:17 16 C 67 %
298 26-05-2014 11:27:17 16 C 67 %
299 26-05-2014 11:39:17 16 C 67 %
300 26-05-2014 11:51:17 16 C 67 %
Sensor: Nr:Datum:Temp:Feuchte:
G-T/H 301 26-05-2014 12:03:17 16 C 67 %
302 26-05-2014 12:15:17 16 C 67 %
303 26-05-2014 12:27:17 16 C 67 %
304 26-05-2014 12:39:17 16 C 67 %
305 26-05-2014 12:51:17 16 C 67 %
306 26-05-2014 13:03:17 16 C 67 %
307 26-05-2014 13:15:17 16 C 67 %
308 26-05-2014 13:27:17 16.1 C 67 %
309 26-05-2014 13:39:17 16.1 C 67 %
310 26-05-2014 13:51:17 16.1 C 67 %
311 26-05-2014 14:03:17 16.1 C 67 %
312 26-05-2014 14:15:17 16.1 C 67 %
313 26-05-2014 14:27:17 16.2 C 67 %
314 26-05-2014 14:39:17 16.2 C 67 %
315 26-05-2014 14:51:17 16.2 C 67 %
316 26-05-2014 15:03:17 16.2 C 67 %
317 26-05-2014 15:15:17 16.2 C 67 %
318 26-05-2014 15:27:17 16.2 C 67 %
319 26-05-2014 15:39:17 16.3 C 67 %
320 26-05-2014 15:51:17 16.3 C 67 %
321 26-05-2014 16:03:17 16.3 C 67 %
322 26-05-2014 16:15:17 16.3 C 67 %
323 26-05-2014 16:27:17 16.3 C 67 %
324 26-05-2014 16:39:17 16.4 C 67 %
325 26-05-2014 16:51:17 16.4 C 67 %
Sensor: Nr:Datum:Temp:Feuchte:
G-T/H 326 26-05-2014 17:03:17 16.4 C 67 %
327 26-05-2014 17:15:17 16.4 C 67 %
328 26-05-2014 17:27:17 16.4 C 67 %
329 26-05-2014 17:39:17 16.4 C 67 %
330 26-05-2014 17:51:17 16.4 C 67 %
331 26-05-2014 18:03:17 16.5 C 67 %
332 26-05-2014 18:15:17 16.5 C 67 %
333 26-05-2014 18:27:17 16.5 C 67 %
334 26-05-2014 18:39:17 16.5 C 67 %
335 26-05-2014 18:51:17 16.5 C 67 %
336 26-05-2014 19:03:17 16.6 C 67 %
337 26-05-2014 19:15:17 16.6 C 67 %
338 26-05-2014 19:27:17 16.6 C 68 %
339 26-05-2014 19:39:17 16.6 C 68 %
340 26-05-2014 19:51:17 16.6 C 68 %
341 26-05-2014 20:03:17 16.6 C 68 %
342 26-05-2014 20:15:17 16.6 C 68 %
343 26-05-2014 20:27:17 16.6 C 68 %
344 26-05-2014 20:39:17 16.6 C 68 %
345 26-05-2014 20:51:17 16.6 C 68 %
346 26-05-2014 21:03:17 16.6 C 68 %
347 26-05-2014 21:15:17 16.6 C 68 %
348 26-05-2014 21:27:17 16.6 C 68 %
349 26-05-2014 21:39:17 16.6 C 68 %
350 26-05-2014 21:51:17 16.6 C 68 %
Sensor: Nr:Datum:Temp:Feuchte:
G-T/H 351 26-05-2014 22:03:17 16.6 C 68 %
352 26-05-2014 22:15:17 16.6 C 68 %
353 26-05-2014 22:27:17 16.6 C 68 %
354 26-05-2014 22:39:17 16.7 C 68 %
355 26-05-2014 22:51:17 16.7 C 68 %
356 26-05-2014 23:03:17 16.6 C 68 %
357 26-05-2014 23:15:17 16.7 C 68 %
358 26-05-2014 23:27:17 16.6 C 68 %
359 26-05-2014 23:39:17 16.7 C 69 %
360 26-05-2014 23:51:17 16.6 C 69 %
361 27-05-2014 00:03:17 16.7 C 69 %
362 27-05-2014 00:15:17 16.6 C 69 %
363 27-05-2014 00:27:17 16.6 C 69 %
364 27-05-2014 00:39:17 16.6 C 69 %
365 27-05-2014 00:51:17 16.6 C 69 %
366 27-05-2014 01:03:17 16.6 C 69 %
367 27-05-2014 01:15:17 16.6 C 69 %
368 27-05-2014 01:27:17 16.6 C 69 %
369 27-05-2014 01:39:17 16.6 C 69 %
370 27-05-2014 01:51:17 16.6 C 69 %
371 27-05-2014 02:03:17 16.6 C 69 %
372 27-05-2014 02:15:17 16.6 C 69 %
373 27-05-2014 02:27:17 16.6 C 69 %
374 27-05-2014 02:39:17 16.6 C 69 %
375 27-05-2014 02:51:16 16.6 C 69 %
Sensor: Nr:Datum:Temp:Feuchte:
G-T/H 376 27-05-2014 03:03:17 16.6 C 69 %
377 27-05-2014 03:15:17 16.5 C 69 %
378 27-05-2014 03:27:17 16.5 C 69 %
379 27-05-2014 03:39:17 16.5 C 69 %
380 27-05-2014 03:51:17 16.5 C 69 %
381 27-05-2014 04:03:17 16.5 C 69 %
382 27-05-2014 04:15:17 16.5 C 69 %
383 27-05-2014 04:27:17 16.5 C 69 %
384 27-05-2014 04:39:17 16.5 C 69 %
385 27-05-2014 04:51:17 16.4 C 69 %
386 27-05-2014 05:03:17 16.4 C 69 %
387 27-05-2014 05:15:17 16.4 C 69 %
388 27-05-2014 05:27:17 16.4 C 69 %
389 27-05-2014 05:39:17 16.4 C 69 %
390 27-05-2014 05:51:17 16.4 C 69 %
391 27-05-2014 06:03:17 16.4 C 69 %
392 27-05-2014 06:15:17 16.4 C 70 %
393 27-05-2014 06:27:17 16.4 C 70 %
394 27-05-2014 06:39:17 16.4 C 70 %
395 27-05-2014 06:51:17 16.3 C 70 %
396 27-05-2014 07:03:17 16.4 C 70 %
397 27-05-2014 07:15:17 16.3 C 70 %
398 27-05-2014 07:27:18 16.3 C 70 %
399 27-05-2014 07:39:17 16.3 C 70 %
400 27-05-2014 07:51:17 16.3 C 70 %
Sensor: Nr:Datum:Temp:Feuchte:
G-T/H 401 27-05-2014 08:03:17 16.3 C 69 %
402 27-05-2014 08:15:17 16.3 C 69 %
403 27-05-2014 08:27:17 16.3 C 69 %
404 27-05-2014 08:39:17 16.3 C 69 %
405 27-05-2014 08:51:16 16.3 C 69 %
406 27-05-2014 09:03:17 16.3 C 69 %
407 27-05-2014 09:15:17 16.3 C 69 %
408 27-05-2014 09:27:17 16.3 C 69 %
409 27-05-2014 09:39:17 16.2 C 69 %
410 27-05-2014 09:51:17 16.2 C 69 %
411 27-05-2014 10:03:17 16.2 C 69 %
412 27-05-2014 10:15:17 16.2 C 69 %
413 27-05-2014 10:27:17 16.2 C 69 %
414 27-05-2014 10:39:17 16.2 C 69 %
415 27-05-2014 10:51:17 16.2 C 69 %
416 27-05-2014 11:03:17 16.2 C 69 %
417 27-05-2014 11:15:17 16.2 C 69 %
418 27-05-2014 11:27:17 16.2 C 69 %
419 27-05-2014 11:39:17 16.2 C 69 %
420 27-05-2014 11:51:17 16.2 C 69 %
421 27-05-2014 12:03:17 16.2 C 69 %
422 27-05-2014 12:15:17 16.2 C 69 %
423 27-05-2014 12:27:17 16.2 C 69 %
424 27-05-2014 12:39:17 16.2 C 69 %
425 27-05-2014 12:51:17 16.2 C 69 %
Sensor: Nr:Datum:Temp:Feuchte:
G-T/H 426 27-05-2014 13:03:17 16.2 C 69 %
427 27-05-2014 13:15:17 16.2 C 69 %
428 27-05-2014 13:27:17 16.2 C 69 %
429 27-05-2014 13:39:17 16.2 C 69 %
430 27-05-2014 13:51:17 16.2 C 69 %
431 27-05-2014 14:03:17 16.2 C 69 %
432 27-05-2014 14:15:17 16.2 C 69 %
433 27-05-2014 14:27:17 16.2 C 69 %
434 27-05-2014 14:39:17 16.2 C 69 %
435 27-05-2014 14:51:17 16.2 C 69 %
436 27-05-2014 15:03:17 16.2 C 69 %
437 27-05-2014 15:15:17 16.2 C 69 %
438 27-05-2014 15:27:18 16.2 C 69 %
439 27-05-2014 15:39:17 16.2 C 69 %
440 27-05-2014 15:51:17 16.2 C 69 %
441 27-05-2014 16:03:17 16.2 C 69 %
442 27-05-2014 16:15:17 16.2 C 69 %
443 27-05-2014 16:27:17 16.2 C 69 %
444 27-05-2014 16:39:17 16.2 C 69 %
445 27-05-2014 16:51:17 16.2 C 69 %
446 27-05-2014 17:03:17 16.2 C 69 %
447 27-05-2014 17:15:17 16.2 C 69 %
448 27-05-2014 17:27:17 16.2 C 69 %
449 27-05-2014 17:39:17 16.2 C 69 %
450 27-05-2014 17:51:17 16.2 C 69 %
Sensor: Nr:Datum:Temp:Feuchte:
G-T/H 451 27-05-2014 18:03:17 16.2 C 69 %
452 27-05-2014 18:15:17 16.2 C 69 %
453 27-05-2014 18:27:17 16.2 C 69 %
454 27-05-2014 18:39:17 16.2 C 69 %
455 27-05-2014 18:51:17 16.2 C 69 %
456 27-05-2014 19:03:17 16.2 C 70 %
457 27-05-2014 19:15:17 16.2 C 70 %
458 27-05-2014 19:27:17 16.2 C 70 %
459 27-05-2014 19:39:17 16.2 C 70 %
460 27-05-2014 19:51:17 16.2 C 70 %
461 27-05-2014 20:03:17 16.1 C 70 %
462 27-05-2014 20:15:17 16.1 C 70 %
463 27-05-2014 20:27:17 16.1 C 70 %
464 27-05-2014 20:39:17 16.1 C 70 %
465 27-05-2014 20:51:17 16.1 C 70 %
466 27-05-2014 21:03:17 16.1 C 70 %
467 27-05-2014 21:15:17 16.1 C 70 %
468 27-05-2014 21:27:17 16.1 C 70 %
469 27-05-2014 21:39:17 16.1 C 70 %
470 27-05-2014 21:51:17 16.1 C 70 %
471 27-05-2014 22:03:17 16 C 70 %
472 27-05-2014 22:15:17 16.1 C 70 %
473 27-05-2014 22:27:17 16.1 C 70 %
474 27-05-2014 22:39:17 16 C 70 %
475 27-05-2014 22:51:17 16 C 70 %
Sensor: Nr:Datum:Temp:Feuchte:
G-T/H 476 27-05-2014 23:03:17 16 C 70 %
477 27-05-2014 23:15:17 16 C 70 %
478 27-05-2014 23:27:17 16 C 70 %
479 27-05-2014 23:39:17 16 C 70 %
480 27-05-2014 23:51:17 16 C 70 %
481 28-05-2014 00:03:17 16 C 70 %
482 28-05-2014 00:15:17 16 C 70 %
483 28-05-2014 00:27:17 16 C 70 %
484 28-05-2014 00:39:17 15.9 C 71 %
485 28-05-2014 00:51:17 15.9 C 71 %
486 28-05-2014 01:03:17 15.9 C 71 %
487 28-05-2014 01:15:17 15.9 C 71 %
488 28-05-2014 01:27:17 15.9 C 71 %
489 28-05-2014 01:39:17 15.9 C 71 %
490 28-05-2014 01:51:17 15.9 C 71 %
491 28-05-2014 02:03:17 15.8 C 71 %
492 28-05-2014 02:15:17 15.8 C 71 %
493 28-05-2014 02:27:17 15.8 C 71 %
494 28-05-2014 02:39:17 15.8 C 71 %
495 28-05-2014 02:51:17 15.8 C 71 %
496 28-05-2014 03:03:17 15.8 C 71 %
497 28-05-2014 03:15:17 15.8 C 71 %
498 28-05-2014 03:27:17 15.8 C 71 %
499 28-05-2014 03:39:17 15.7 C 71 %
500 28-05-2014 03:51:17 15.8 C 71 %
Sensor: Nr:Datum:Temp:Feuchte:
G-T/H 501 28-05-2014 04:03:17 15.7 C 71 %
502 28-05-2014 04:15:17 15.7 C 71 %
503 28-05-2014 04:27:17 15.7 C 71 %
504 28-05-2014 04:39:17 15.6 C 71 %
505 28-05-2014 04:51:17 15.7 C 71 %
506 28-05-2014 05:03:17 15.6 C 71 %
507 28-05-2014 05:15:17 15.6 C 71 %
508 28-05-2014 05:27:17 15.6 C 71 %
509 28-05-2014 05:39:17 15.6 C 71 %
510 28-05-2014 05:51:17 15.6 C 71 %
511 28-05-2014 06:03:17 15.6 C 71 %
512 28-05-2014 06:15:17 15.6 C 71 %
513 28-05-2014 06:27:17 15.5 C 71 %
514 28-05-2014 06:39:17 15.5 C 71 %
515 28-05-2014 06:51:17 15.5 C 71 %
516 28-05-2014 07:03:17 15.5 C 71 %
517 28-05-2014 07:15:17 15.5 C 71 %
518 28-05-2014 07:27:17 15.5 C 71 %
519 28-05-2014 07:39:17 15.5 C 71 %
520 28-05-2014 07:51:17 15.5 C 71 %
521 28-05-2014 08:03:17 15.4 C 71 %
522 28-05-2014 08:15:17 15.5 C 71 %
523 28-05-2014 08:27:17 15.5 C 71 %
524 28-05-2014 08:39:17 15.5 C 71 %
525 28-05-2014 08:51:17 15.5 C 71 %
Sensor: Nr:Datum:Temp:Feuchte:
G-T/H 526 28-05-2014 09:03:17 15.5 C 71 %
527 28-05-2014 09:15:17 15.5 C 70 %
528 28-05-2014 09:27:17 15.4 C 70 %
529 28-05-2014 09:39:17 15.4 C 70 %
530 28-05-2014 09:51:17 15.4 C 70 %
531 28-05-2014 10:03:17 15.4 C 70 %
532 28-05-2014 10:15:17 15.4 C 70 %
533 28-05-2014 10:27:17 15.5 C 70 %
534 28-05-2014 10:39:17 15.5 C 70 %
535 28-05-2014 10:51:16 15.4 C 70 %
536 28-05-2014 11:03:17 15.4 C 70 %
537 28-05-2014 11:15:16 15.4 C 70 %
538 28-05-2014 11:27:17 15.4 C 70 %
539 28-05-2014 11:39:17 15.4 C 70 %
540 28-05-2014 11:51:17 15.5 C 70 %
541 28-05-2014 12:03:17 15.5 C 70 %
542 28-05-2014 12:15:17 15.5 C 70 %
543 28-05-2014 12:27:17 15.4 C 70 %
544 28-05-2014 12:39:17 15.5 C 69 %
545 28-05-2014 12:51:17 15.5 C 69 %
546 28-05-2014 13:03:17 15.5 C 69 %
547 28-05-2014 13:15:17 15.5 C 69 %
548 28-05-2014 13:27:17 15.5 C 69 %
549 28-05-2014 13:39:17 15.5 C 69 %
550 28-05-2014 13:51:17 15.5 C 69 %
Sensor: Nr:Datum:Temp:Feuchte:
G-T/H 551 28-05-2014 14:03:17 15.5 C 69 %
552 28-05-2014 14:15:17 15.5 C 69 %
553 28-05-2014 14:27:17 15.5 C 69 %
554 28-05-2014 14:39:17 15.6 C 69 %
555 28-05-2014 14:51:17 15.6 C 69 %
556 28-05-2014 15:03:17 15.6 C 69 %
557 28-05-2014 15:15:17 15.6 C 69 %
558 28-05-2014 15:27:17 15.6 C 69 %
559 28-05-2014 15:39:17 15.6 C 69 %
560 28-05-2014 15:51:17 15.6 C 69 %
561 28-05-2014 16:03:17 15.6 C 69 %
562 28-05-2014 16:15:17 15.6 C 69 %
563 28-05-2014 16:27:17 15.6 C 69 %
564 28-05-2014 16:39:17 15.6 C 69 %
565 28-05-2014 16:51:17 15.7 C 69 %
566 28-05-2014 17:03:17 15.6 C 69 %
567 28-05-2014 17:15:17 15.7 C 69 %
568 28-05-2014 17:27:17 15.7 C 69 %
569 28-05-2014 17:39:18 15.7 C 69 %
570 28-05-2014 17:51:17 15.7 C 70 %
571 28-05-2014 18:03:17 15.7 C 70 %
572 28-05-2014 18:15:17 15.7 C 70 %
573 28-05-2014 18:27:17 15.7 C 70 %
574 28-05-2014 18:39:17 15.7 C 70 %
575 28-05-2014 18:51:17 15.8 C 70 %
Sensor: Nr:Datum:Temp:Feuchte:
G-T/H 576 28-05-2014 19:03:17 15.8 C 70 %
577 28-05-2014 19:15:17 15.7 C 70 %
578 28-05-2014 19:27:17 15.8 C 70 %
579 28-05-2014 19:39:17 15.8 C 70 %
580 28-05-2014 19:51:17 15.8 C 70 %
581 28-05-2014 20:03:17 15.8 C 70 %
582 28-05-2014 20:15:17 15.8 C 70 %
583 28-05-2014 20:27:17 15.8 C 70 %
584 28-05-2014 20:39:17 15.8 C 70 %
585 28-05-2014 20:51:17 15.8 C 70 %
586 28-05-2014 21:03:17 15.8 C 70 %
587 28-05-2014 21:15:17 15.8 C 70 %
588 28-05-2014 21:27:17 15.7 C 70 %
589 28-05-2014 21:39:17 15.7 C 71 %
590 28-05-2014 21:51:17 15.7 C 71 %
591 28-05-2014 22:03:17 15.7 C 71 %
592 28-05-2014 22:15:17 15.7 C 71 %
593 28-05-2014 22:27:17 15.7 C 71 %
594 28-05-2014 22:39:17 15.7 C 71 %
595 28-05-2014 22:51:16 15.7 C 71 %
596 28-05-2014 23:03:17 15.7 C 71 %
597 28-05-2014 23:15:17 15.7 C 71 %
598 28-05-2014 23:27:17 15.6 C 71 %
599 28-05-2014 23:39:17 15.6 C 71 %
600 28-05-2014 23:51:17 15.6 C 71 %
Sensor: Nr:Datum:Temp:Feuchte:
G-T/H 601 29-05-2014 00:03:17 15.6 C 71 %
602 29-05-2014 00:15:17 15.6 C 71 %
603 29-05-2014 00:27:18 15.6 C 71 %
604 29-05-2014 00:39:17 15.6 C 71 %
605 29-05-2014 00:51:17 15.5 C 71 %
606 29-05-2014 01:03:17 15.6 C 71 %
607 29-05-2014 01:15:17 15.5 C 71 %
608 29-05-2014 01:27:17 15.5 C 71 %
609 29-05-2014 01:39:17 15.5 C 71 %
610 29-05-2014 01:51:17 15.5 C 71 %
611 29-05-2014 02:03:17 15.5 C 70 %
612 29-05-2014 02:15:17 15.4 C 70 %
613 29-05-2014 02:27:17 15.5 C 70 %
614 29-05-2014 02:39:17 15.4 C 70 %
615 29-05-2014 02:51:17 15.4 C 70 %
616 29-05-2014 03:03:18 15.4 C 70 %
617 29-05-2014 03:15:17 15.4 C 70 %
618 29-05-2014 03:27:17 15.3 C 70 %
619 29-05-2014 03:39:17 15.3 C 70 %
620 29-05-2014 03:51:17 15.4 C 70 %
621 29-05-2014 04:03:17 15.3 C 70 %
622 29-05-2014 04:15:17 15.3 C 70 %
623 29-05-2014 04:27:17 15.2 C 69 %
624 29-05-2014 04:39:17 15.2 C 69 %
625 29-05-2014 04:51:17 15.2 C 69 %
Sensor: Nr:Datum:Temp:Feuchte:
G-T/H 626 29-05-2014 05:03:17 15.2 C 69 %
627 29-05-2014 05:15:17 15.2 C 69 %
628 29-05-2014 05:27:17 15.1 C 69 %
629 29-05-2014 05:39:17 15.2 C 69 %
630 29-05-2014 05:51:17 15.2 C 69 %
631 29-05-2014 06:03:17 15.1 C 69 %
632 29-05-2014 06:15:17 15.1 C 69 %
633 29-05-2014 06:27:17 15.1 C 69 %
634 29-05-2014 06:39:17 15 C 69 %
635 29-05-2014 06:51:17 15 C 69 %
636 29-05-2014 07:03:17 15 C 69 %
637 29-05-2014 07:15:16 15 C 69 %
638 29-05-2014 07:27:16 15 C 69 %
639 29-05-2014 07:39:17 15 C 69 %
640 29-05-2014 07:51:17 15 C 69 %
641 29-05-2014 08:03:17 14.9 C 70 %
642 29-05-2014 08:15:17 14.9 C 70 %
643 29-05-2014 08:27:17 14.9 C 70 %
644 29-05-2014 08:39:17 14.9 C 70 %
645 29-05-2014 08:51:17 14.9 C 70 %
646 29-05-2014 09:03:17 14.9 C 70 %
647 29-05-2014 09:15:17 14.9 C 70 %
648 29-05-2014 09:27:17 14.9 C 70 %
649 29-05-2014 09:39:17 14.9 C 70 %
650 29-05-2014 09:51:17 14.9 C 70 %
Sensor: Nr:Datum:Temp:Feuchte:
G-T/H 651 29-05-2014 10:03:17 14.9 C 70 %
652 29-05-2014 10:15:17 14.9 C 70 %
653 29-05-2014 10:27:17 14.9 C 70 %
654 29-05-2014 10:39:17 14.8 C 70 %
655 29-05-2014 10:51:17 14.9 C 70 %
656 29-05-2014 11:03:17 14.9 C 70 %
657 29-05-2014 11:15:17 14.9 C 70 %
658 29-05-2014 11:27:17 14.9 C 70 %
659 29-05-2014 11:39:17 14.9 C 70 %
660 29-05-2014 11:51:17 14.9 C 70 %
661 29-05-2014 12:03:17 14.9 C 70 %
662 29-05-2014 12:15:17 14.9 C 70 %
663 29-05-2014 12:27:17 14.9 C 70 %
664 29-05-2014 12:39:17 14.9 C 70 %
665 29-05-2014 12:51:17 14.9 C 70 %
666 29-05-2014 13:03:17 15 C 70 %
667 29-05-2014 13:15:16 15 C 69 %
668 29-05-2014 13:27:16 15 C 69 %
669 29-05-2014 13:39:17 15 C 69 %
670 29-05-2014 13:51:17 15.1 C 69 %
671 29-05-2014 14:03:17 15.1 C 69 %
672 29-05-2014 14:15:17 15.1 C 69 %
673 29-05-2014 14:27:17 15.1 C 69 %
674 29-05-2014 14:39:17 15.1 C 69 %
675 29-05-2014 14:51:17 15.2 C 69 %
Sensor: Nr:Datum:Temp:Feuchte:
G-T/H 676 29-05-2014 15:03:17 15.2 C 69 %
677 29-05-2014 15:15:17 15.2 C 69 %
678 29-05-2014 15:27:17 15.2 C 69 %
679 29-05-2014 15:39:17 15.2 C 69 %
680 29-05-2014 15:51:17 15.2 C 69 %
681 29-05-2014 16:03:17 15.3 C 69 %
682 29-05-2014 16:15:17 15.3 C 69 %
683 29-05-2014 16:27:17 15.3 C 70 %
684 29-05-2014 16:39:17 15.3 C 70 %
685 29-05-2014 16:51:17 15.3 C 70 %
686 29-05-2014 17:03:17 15.3 C 70 %
687 29-05-2014 17:15:17 15.3 C 70 %
688 29-05-2014 17:27:17 15.3 C 70 %
689 29-05-2014 17:39:18 15.4 C 70 %
690 29-05-2014 17:51:17 15.4 C 70 %
691 29-05-2014 18:03:17 15.4 C 70 %
692 29-05-2014 18:15:17 15.4 C 70 %
693 29-05-2014 18:27:17 15.4 C 70 %
694 29-05-2014 18:39:16 15.4 C 70 %
695 29-05-2014 18:51:17 15.4 C 70 %
696 29-05-2014 19:03:17 15.4 C 70 %
697 29-05-2014 19:15:17 15.5 C 70 %
698 29-05-2014 19:27:17 15.4 C 70 %
699 29-05-2014 19:39:17 15.5 C 70 %
700 29-05-2014 19:51:17 15.4 C 70 %
Sensor: Nr:Datum:Temp:Feuchte:
G-T/H 701 29-05-2014 20:03:17 15.4 C 70 %
702 29-05-2014 20:15:17 15.4 C 70 %
703 29-05-2014 20:27:17 15.4 C 70 %
704 29-05-2014 20:39:17 15.4 C 70 %
705 29-05-2014 20:51:17 15.4 C 71 %
706 29-05-2014 21:03:17 15.4 C 71 %
707 29-05-2014 21:15:17 15.4 C 71 %
708 29-05-2014 21:27:17 15.4 C 71 %
709 29-05-2014 21:39:17 15.4 C 71 %
710 29-05-2014 21:51:17 15.4 C 71 %
711 29-05-2014 22:03:17 15.5 C 71 %
712 29-05-2014 22:15:17 15.4 C 71 %
713 29-05-2014 22:27:17 15.4 C 71 %
714 29-05-2014 22:39:17 15.4 C 71 %
715 29-05-2014 22:51:17 15.4 C 71 %
716 29-05-2014 23:03:17 15.4 C 71 %
717 29-05-2014 23:15:17 15.4 C 71 %
718 29-05-2014 23:27:17 15.4 C 71 %
719 29-05-2014 23:39:17 15.4 C 71 %
720 29-05-2014 23:51:17 15.4 C 71 %
721 30-05-2014 00:03:17 15.4 C 71 %
722 30-05-2014 00:15:17 15.3 C 71 %
723 30-05-2014 00:27:17 15.3 C 71 %
724 30-05-2014 00:39:17 15.3 C 71 %
725 30-05-2014 00:51:17 15.3 C 71 %
Sensor: Nr:Datum:Temp:Feuchte:
G-T/H 726 30-05-2014 01:03:17 15.3 C 70 %
727 30-05-2014 01:15:17 15.2 C 70 %
728 30-05-2014 01:27:17 15.3 C 70 %
729 30-05-2014 01:39:17 15.3 C 70 %
730 30-05-2014 01:51:17 15.2 C 70 %
731 30-05-2014 02:03:17 15.2 C 70 %
732 30-05-2014 02:15:17 15.2 C 70 %
733 30-05-2014 02:27:17 15.2 C 70 %
734 30-05-2014 02:39:17 15.2 C 70 %
735 30-05-2014 02:51:17 15.2 C 70 %
736 30-05-2014 03:03:17 15.2 C 70 %
737 30-05-2014 03:15:17 15.1 C 70 %
738 30-05-2014 03:27:17 15.1 C 70 %
739 30-05-2014 03:39:17 15.1 C 70 %
740 30-05-2014 03:51:17 15.1 C 69 %
741 30-05-2014 04:03:17 15.1 C 69 %
742 30-05-2014 04:15:17 15.1 C 69 %
743 30-05-2014 04:27:17 15 C 69 %
744 30-05-2014 04:39:17 15.1 C 69 %
745 30-05-2014 04:51:17 15 C 69 %
746 30-05-2014 05:03:17 15 C 69 %
747 30-05-2014 05:15:17 15 C 69 %
748 30-05-2014 05:27:17 15 C 69 %
749 30-05-2014 05:39:17 15 C 69 %
750 30-05-2014 05:51:17 14.9 C 69 %
Sensor: Nr:Datum:Temp:Feuchte:
G-T/H 751 30-05-2014 06:03:17 14.9 C 69 %
752 30-05-2014 06:15:17 14.9 C 69 %
753 30-05-2014 06:27:17 14.9 C 68 %
754 30-05-2014 06:39:17 14.8 C 67 %
755 30-05-2014 06:51:17 14.8 C 67 %
756 30-05-2014 07:03:17 14.8 C 66 %
757 30-05-2014 07:15:17 14.7 C 66 %
758 30-05-2014 07:27:17 14.7 C 65 %
759 30-05-2014 07:39:17 14.7 C 65 %
760 30-05-2014 07:51:17 14.7 C 64 %
761 30-05-2014 08:03:17 14.7 C 64 %
762 30-05-2014 08:15:17 14.6 C 63 %
763 30-05-2014 08:27:17 14.7 C 63 %
764 30-05-2014 08:39:17 14.7 C 64 %
765 30-05-2014 08:51:17 14.7 C 64 %
766 30-05-2014 09:03:17 14.6 C 64 %
767 30-05-2014 09:15:17 14.5 C 62 %
768 30-05-2014 09:27:17 14.5 C 61 %
769 30-05-2014 09:39:17 14.5 C 60 %
770 30-05-2014 09:51:17 14.4 C 60 %
771 30-05-2014 10:03:17 14.4 C 59 %
772 30-05-2014 10:15:17 14.5 C 60 %
773 30-05-2014 10:27:17 14.5 C 61 %
774 30-05-2014 10:39:17 14.6 C 62 %
775 30-05-2014 10:51:17 14.6 C 63 %
Sensor: Nr:Datum:Temp:Feuchte:
G-T/H 776 30-05-2014 11:03:17 14.6 C 63 %
777 30-05-2014 11:15:17 14.6 C 64 %
778 30-05-2014 11:27:17 14.6 C 64 %
779 30-05-2014 11:39:17 14.6 C 64 %
780 30-05-2014 11:51:17 14.6 C 64 %
781 30-05-2014 12:03:17 14.7 C 65 %
782 30-05-2014 12:15:17 14.7 C 65 %
783 30-05-2014 12:27:17 14.7 C 65 %
784 30-05-2014 12:39:17 14.7 C 65 %
785 30-05-2014 12:51:17 14.7 C 65 %
786 30-05-2014 13:03:17 14.7 C 65 %
787 30-05-2014 13:15:17 14.8 C 65 %
788 30-05-2014 13:27:17 14.8 C 65 %
789 30-05-2014 13:39:17 14.8 C 65 %
790 30-05-2014 13:51:17 14.9 C 66 %
791 30-05-2014 14:03:17 14.9 C 66 %
792 30-05-2014 14:15:17 14.9 C 65 %
793 30-05-2014 14:27:17 15 C 65 %
794 30-05-2014 14:39:17 15 C 65 %
795 30-05-2014 14:51:17 15 C 65 %
796 30-05-2014 15:03:18 15 C 64 %
797 30-05-2014 15:15:17 15 C 64 %
798 30-05-2014 15:27:17 15.1 C 63 %
799 30-05-2014 15:39:17 15.1 C 63 %
800 30-05-2014 15:51:17 15.1 C 63 %
Sensor: Nr:Datum:Temp:Feuchte:
G-T/H 801 30-05-2014 16:03:17 15.1 C 63 %
802 30-05-2014 16:15:17 15.2 C 63 %
803 30-05-2014 16:27:17 15.2 C 63 %
804 30-05-2014 16:39:17 15.2 C 63 %
805 30-05-2014 16:51:17 15.3 C 63 %
806 30-05-2014 17:03:17 15.3 C 63 %
807 30-05-2014 17:15:17 15.3 C 63 %
808 30-05-2014 17:27:17 15.4 C 64 %
809 30-05-2014 17:39:17 15.4 C 64 %
810 30-05-2014 17:51:17 15.4 C 64 %
811 30-05-2014 18:03:17 15.4 C 64 %
812 30-05-2014 18:15:17 15.4 C 64 %
813 30-05-2014 18:27:17 15.4 C 64 %
814 30-05-2014 18:39:17 15.5 C 64 %
815 30-05-2014 18:51:17 15.5 C 64 %
816 30-05-2014 19:03:17 15.6 C 64 %
817 30-05-2014 19:15:17 15.5 C 64 %
818 30-05-2014 19:27:17 15.5 C 64 %
819 30-05-2014 19:39:18 15.6 C 63 %
820 30-05-2014 19:51:17 15.6 C 62 %
821 30-05-2014 20:03:17 15.6 C 61 %
822 30-05-2014 20:15:17 15.6 C 60 %
823 30-05-2014 20:27:17 15.6 C 60 %
824 30-05-2014 20:39:17 15.6 C 60 %
825 30-05-2014 20:51:17 15.6 C 61 %
Sensor: Nr:Datum:Temp:Feuchte:
G-T/H 826 30-05-2014 21:03:16 15.5 C 61 %
827 30-05-2014 21:15:17 15.5 C 62 %
828 30-05-2014 21:27:17 15.5 C 63 %
829 30-05-2014 21:39:17 15.4 C 63 %
830 30-05-2014 21:51:17 15.4 C 63 %
831 30-05-2014 22:03:17 15.3 C 62 %
832 30-05-2014 22:15:17 15.2 C 61 %
833 30-05-2014 22:27:17 15 C 60 %
834 30-05-2014 22:39:17 15 C 59 %
835 30-05-2014 22:51:17 15 C 59 %
836 30-05-2014 23:03:17 15.1 C 59 %
837 30-05-2014 23:15:17 15.2 C 59 %
838 30-05-2014 23:27:17 15.2 C 59 %
839 30-05-2014 23:39:17 15.2 C 59 %
840 30-05-2014 23:51:17 15.2 C 59 %

Legende:
   Min
   Max


Maximal/Minimal-Werte vom 24.05.2014 - 30.05.2014

Sensor Min Max Avg
Temp
(Aussen-T/F)
7.4 °C
25-05-2014  05:27:17
34.3 °C
25-05-2014  16:51:16
15.4 °C
Feuchte
(Aussen-T/F)
20 %
24-05-2014  17:50:17
90 %
27-05-2014  04:51:17
66.51 %
Temp
(G-T/H)
14.4 °C
30-05-2014  09:51:17
18.3 °C
24-05-2014  18:14:17
15.87 °C
Feuchte
(G-T/H)
51 %
24-05-2014  18:02:17
71 %
28-05-2014  00:39:17
67.15 %

Die Daten stammen von einer Davis Vantage Pro 2 Wetter-Station und werden unter Linux mit der Software wview2wettercgi und aufbereitet. Alle Angaben erfolgen ohne Gewähr für ihre Vollständigkeit oder Richtigkeit.
Kontakt: Rainer Krienke krienke@uni-koblenz.de . Meine Webseiten an der Uni Koblenz oder privat.
Version: $Revision: 0.78 $